ECMWFFLT1_925_thetae_045.txt.gz
Theta_e
351 352 353 353 354 355 355 355 353 352 355 357 357 356 358 358 359 360 360 360 360 359 359 359 359 358 356 356 356 355 355 356 356 357 358 357 357 357 357 356 355 356 357 357 357 357 357 356 356 356 357 357 357 359 361 362 362 361 360 360 359 359 359
353 352 352 352 352 355 356 355 352 351 354 357 357 356 357 358 359 360 361 360 360 360 359 359 359 359 357 356 356 356 356 356 356 356 357 358 358 358 358 358 356 356 357 357 357 358 358 357 357 357 358 358 358 359 360 361 361 361 361 360 359 358 358
352 352 351 352 353 354 356 355 353 352 353 357 357 357 356 357 359 360 361 361 360 360 360 359 360 360 358 357 357 357 357 357 357 356 357 357 357 358 359 359 358 356 357 357 357 358 359 359 359 358 357 358 359 359 360 360 360 360 361 361 359 358 358
351 352 351 352 355 355 355 355 355 354 353 355 357 356 356 356 358 360 361 361 361 360 361 360 359 360 359 358 357 357 357 357 357 357 356 356 356 356 358 359 359 357 357 358 359 358 358 359 360 359 358 358 359 360 359 359 359 360 360 361 360 358 358
351 350 349 352 354 354 354 353 354 354 353 355 356 356 356 357 358 360 361 362 362 361 361 360 360 359 359 359 358 357 357 357 357 357 356 356 356 356 356 357 359 359 358 358 359 360 360 359 359 359 358 358 359 359 359 358 359 360 360 360 360 359 358
349 349 349 351 353 353 353 352 352 353 353 354 355 355 356 357 359 360 361 363 363 362 362 361 361 360 359 359 358 358 357 357 357 357 357 357 357 356 356 355 357 359 360 359 360 361 361 360 359 359 359 358 359 359 359 359 359 360 360 360 360 360 358
348 350 349 350 352 352 352 352 351 351 352 353 353 355 356 357 360 361 361 363 363 363 363 362 362 361 360 359 359 359 358 358 357 357 357 357 357 357 357 356 356 357 360 361 361 361 362 363 361 359 359 359 359 360 359 359 359 359 361 361 361 361 359
347 350 350 350 350 351 351 353 352 351 351 352 353 356 357 358 360 362 362 363 363 363 363 363 362 361 361 361 360 359 358 358 357 357 357 358 358 358 357 357 356 356 358 360 361 362 361 362 362 361 359 358 359 360 359 360 360 360 361 362 362 362 361
346 348 349 350 348 349 351 352 352 352 351 353 354 357 359 360 361 362 363 363 364 364 364 363 363 362 361 361 361 360 359 358 358 357 357 358 358 358 358 358 357 356 357 358 360 362 361 361 361 361 360 358 358 359 360 360 360 361 361 362 362 362 361
345 347 350 350 349 350 351 352 353 353 353 354 355 357 358 360 361 362 363 364 364 365 364 364 363 362 362 362 361 361 360 359 359 358 358 358 358 358 358 358 358 357 357 357 358 361 362 361 360 360 361 360 359 359 359 360 360 361 361 361 361 361 361
346 348 350 351 351 352 352 353 356 356 356 354 354 357 357 358 360 360 360 363 365 366 366 365 365 364 363 362 362 362 361 360 359 358 358 358 358 358 358 359 359 358 357 358 358 359 361 362 361 359 360 361 360 359 358 359 360 361 361 361 361 360 360
348 347 349 351 351 351 351 354 358 359 358 355 354 357 358 358 359 359 359 361 364 367 367 367 366 365 364 363 363 363 362 361 360 359 359 358 358 358 358 358 359 359 359 358 359 359 360 361 362 360 359 360 360 360 359 359 360 360 361 361 361 360 360
350 346 347 350 351 351 352 355 358 360 359 355 353 355 357 359 360 360 361 361 362 367 369 368 368 367 365 364 363 363 363 362 361 360 359 358 358 358 358 358 359 359 360 359 359 360 360 361 362 361 360 359 359 360 361 360 360 361 361 361 361 360 360
349 348 350 352 352 353 355 355 357 359 357 354 354 354 356 358 360 361 362 363 363 365 368 369 369 368 367 365 364 363 363 362 361 360 360 359 358 357 358 358 358 358 359 360 360 360 360 361 361 361 361 360 358 359 360 361 361 361 361 361 361 360 360
349 352 355 355 354 355 356 357 358 357 356 354 352 354 356 358 361 363 363 363 364 364 366 370 370 369 368 367 365 364 362 362 361 361 360 359 359 358 358 358 358 357 358 359 360 359 359 359 360 362 362 361 360 359 360 361 362 362 361 361 361 360 360
353 357 357 357 359 359 358 360 361 359 360 358 354 355 359 361 362 364 364 364 364 364 365 368 369 370 369 367 366 364 363 362 361 360 361 360 359 359 358 358 358 357 357 358 359 358 358 358 359 361 361 362 362 361 360 361 362 363 362 361 360 360 360
354 360 360 358 358 361 364 367 366 364 365 365 360 359 362 364 364 365 364 365 364 364 365 367 368 369 369 368 367 365 364 362 362 361 360 360 361 360 359 358 358 357 356 357 359 360 359 359 359 360 361 362 362 362 362 361 361 362 363 362 361 360 360
354 358 361 362 361 367 376 379 374 371 369 365 363 363 363 364 366 365 365 365 365 365 365 365 367 368 368 368 367 367 366 364 362 362 361 360 361 361 360 358 357 357 356 357 359 360 360 360 360 359 361 362 362 362 363 362 361 361 361 362 362 361 360
352 356 361 366 367 368 373 378 380 377 372 366 364 364 363 364 365 365 366 365 365 365 365 364 365 367 367 367 367 367 367 365 364 363 362 361 360 360 361 359 357 357 357 357 358 360 361 361 361 360 360 361 363 362 362 363 362 362 361 361 362 361 360
350 356 359 363 368 368 367 373 379 374 368 366 367 365 364 364 363 364 365 365 365 365 365 365 364 365 366 366 366 368 367 367 366 364 363 363 361 360 361 360 358 357 357 357 357 359 361 362 362 362 361 360 362 363 363 363 363 363 362 362 361 361 361
354 358 361 367 378 379 374 376 378 372 363 361 362 363 363 362 362 363 364 363 364 364 363 364 364 364 365 365 365 367 368 368 366 365 365 364 363 362 361 360 360 358 357 357 357 358 360 361 362 363 362 361 361 362 363 363 363 364 363 363 362 362 362
364 364 367 373 379 380 377 373 372 369 362 357 356 356 357 358 358 359 361 361 362 362 362 363 362 362 364 364 364 366 367 368 367 366 366 365 364 364 362 361 361 360 358 357 357 358 358 359 361 361 362 363 362 361 362 362 363 364 364 364 364 363 363
364 364 365 365 365 369 369 364 363 361 357 356 357 354 354 356 356 356 358 359 359 359 360 361 362 362 363 364 364 364 367 368 368 366 367 366 366 365 364 363 362 362 360 359 358 358 359 358 359 360 361 363 363 362 362 361 362 364 365 365 365 365 364
359 361 361 359 359 360 359 361 363 360 356 355 356 356 356 356 354 354 356 356 357 358 357 359 360 361 363 365 364 364 366 368 368 368 367 367 367 367 366 365 364 364 363 361 360 359 359 359 359 360 360 362 363 363 362 362 361 362 364 366 367 366 366
357 356 355 358 359 357 356 362 363 361 363 364 363 365 364 362 360 357 355 355 356 356 356 357 358 359 362 365 365 365 366 368 368 368 368 367 367 368 368 367 366 366 365 364 363 361 360 361 361 361 362 362 362 363 363 363 362 361 362 364 366 367 367
357 355 354 357 359 355 356 362 363 362 367 368 366 367 368 368 369 366 362 359 357 356 355 355 356 357 359 362 365 366 367 369 369 369 368 368 368 368 369 368 368 368 367 367 366 364 363 363 363 364 364 363 363 363 364 365 364 364 363 364 364 367 367
354 353 354 357 357 354 354 361 365 365 365 365 365 363 362 366 372 372 370 366 362 360 358 356 355 355 357 360 364 367 368 369 370 370 369 369 369 369 370 370 369 369 369 368 368 366 365 364 364 365 365 365 365 365 365 365 365 365 366 365 364 365 366
354 354 354 356 356 355 354 359 364 364 362 363 363 360 360 365 371 374 373 370 367 364 360 359 358 354 355 359 361 365 369 369 371 372 370 371 371 371 371 372 371 370 370 369 369 369 367 366 365 365 365 366 366 366 366 366 366 366 367 366 366 365 365
355 355 355 354 355 354 354 358 360 360 360 361 362 362 363 367 371 373 373 372 370 365 360 362 362 356 355 358 361 364 367 369 370 372 372 372 372 372 373 374 373 372 371 371 370 370 369 368 367 365 365 365 366 367 367 367 367 367 367 366 367 366 366
353 354 353 353 354 354 353 355 358 358 358 360 362 363 364 367 371 372 372 372 370 367 363 364 366 363 358 359 362 364 366 368 370 372 372 373 374 373 374 374 374 373 373 372 372 371 370 369 368 367 366 365 365 366 367 368 368 368 368 368 368 367 367
351 352 353 353 354 355 355 356 356 357 359 360 360 360 360 363 367 368 368 369 369 369 366 364 367 369 365 362 364 367 368 369 370 371 373 374 374 374 374 375 374 374 373 372 372 372 371 370 369 368 367 366 366 367 367 368 369 369 369 369 369 368 368
349 350 352 354 354 354 356 357 357 358 359 358 357 357 358 359 361 364 366 367 368 370 368 366 369 372 369 366 368 370 371 371 371 372 373 374 375 374 375 375 375 374 373 373 373 372 371 371 371 370 369 368 368 367 367 368 368 368 368 368 368 368 368
350 349 350 352 353 352 354 356 357 358 358 356 356 357 357 357 358 360 361 364 368 370 369 370 371 372 371 369 370 373 374 373 373 374 373 374 375 374 375 376 376 375 374 374 374 373 372 372 371 371 370 370 369 369 369 368 365 363 363 363 364 364 363
350 348 348 350 351 351 353 356 357 357 357 356 356 356 356 355 356 357 358 362 366 369 370 370 371 372 373 371 372 375 376 374 374 375 374 374 374 375 375 376 375 375 375 374 374 374 373 372 371 371 371 370 370 370 366 361 357 355 355 357 358 358 359
348 346 348 350 350 352 354 355 355 356 355 355 355 354 354 354 353 354 355 359 364 367 369 369 369 370 372 371 371 373 374 375 376 375 374 372 369 369 371 372 374 374 373 373 374 374 373 372 371 369 369 368 367 368 362 353 347 346 347 347 348 348 349
346 346 348 350 350 351 353 353 354 354 354 354 354 353 353 353 353 353 353 356 360 363 366 369 370 370 370 369 370 371 371 372 374 373 370 367 365 362 360 361 365 368 367 366 371 372 372 372 369 366 366 363 357 354 351 345 339 336 336 336 336 335 335
347 347 349 349 349 350 351 351 352 353 353 353 353 352 352 351 351 351 351 352 356 360 365 368 369 368 368 369 370 371 370 369 371 369 364 362 362 360 354 348 347 350 352 354 359 362 364 363 360 357 358 356 347 340 337 334 332 331 330 330 331 331 330
347 347 348 349 350 350 350 351 352 352 352 352 352 352 351 350 349 349 349 351 354 358 363 366 366 366 366 366 368 370 369 369 369 365 357 352 351 351 347 339 334 334 336 339 342 345 347 347 346 344 343 343 340 336 332 331 331 331 330 330 330 330 330

ECMWFFLT1_925_thetae_048.txt.gz
Theta_e
349 351 352 352 353 352 352 352 350 350 350 351 352 353 353 353 353 352 353 353 353 354 354 354 355 356 355 355 355 354 354 353 352 352 351 352 353 353 352 352 353 352 352 353 352 353 353 354 354 354 354 355 354 355 354 354 356 359 360 359 360 360 360
350 351 351 352 353 353 353 351 350 350 351 351 352 353 353 354 354 353 353 353 353 353 354 354 355 356 355 355 354 354 354 353 352 352 351 352 353 354 353 352 352 352 352 353 352 352 353 354 355 354 354 354 354 354 354 354 355 358 361 360 360 360 360
350 351 352 353 354 354 353 352 351 350 352 352 352 352 353 353 354 354 354 354 354 353 354 354 354 355 355 355 355 353 353 353 352 352 352 352 353 353 354 353 352 352 352 353 353 352 353 354 355 355 354 353 354 355 355 354 354 357 360 361 361 361 360
350 350 352 352 353 354 353 353 351 351 351 352 352 353 354 354 354 355 355 354 355 354 354 354 355 355 355 355 354 354 354 353 353 353 352 352 352 353 354 354 353 352 353 354 354 353 354 354 354 355 354 354 354 354 355 355 355 356 359 361 362 360 360
352 351 351 353 353 353 353 353 352 350 351 352 353 353 353 354 354 356 355 355 355 355 354 354 354 355 355 355 354 354 354 354 353 353 352 352 352 353 353 355 354 354 354 354 355 354 355 355 355 355 355 354 354 355 355 356 356 357 358 361 361 360 360
352 352 352 353 352 354 354 352 351 351 351 353 353 353 353 355 355 356 356 356 356 356 355 355 355 356 355 355 354 355 354 354 353 353 354 353 353 354 353 354 354 355 354 353 354 355 355 356 355 355 355 355 355 355 356 357 357 358 358 360 361 360 360
351 352 351 352 352 352 353 352 351 350 352 353 353 354 354 355 355 356 357 357 357 357 357 356 356 356 356 356 355 355 355 355 354 354 354 354 354 355 354 354 355 355 355 355 354 354 356 357 356 355 356 356 356 356 356 357 358 358 358 359 360 359 360
351 351 350 351 352 352 353 352 352 350 350 353 353 355 355 355 356 356 358 358 357 358 358 357 357 357 357 357 356 356 355 355 355 354 354 355 354 355 355 355 356 356 357 357 355 356 356 356 356 356 357 357 358 357 357 357 357 358 359 359 359 359 360
351 351 350 352 350 350 353 351 351 350 350 352 353 354 355 355 356 357 358 359 358 359 358 358 358 357 357 357 357 357 356 355 356 355 355 355 355 355 355 354 355 356 357 358 357 356 356 356 356 356 358 358 358 358 358 358 357 358 359 358 359 359 359
351 351 349 351 350 350 352 351 352 353 351 352 352 354 355 355 355 357 358 359 359 360 359 358 359 358 358 357 357 357 357 356 356 355 356 356 355 355 355 355 354 354 356 357 358 358 356 356 356 357 357 358 358 358 358 358 358 358 358 358 358 358 358
350 351 350 351 351 351 352 352 353 354 353 351 351 353 355 354 355 356 356 359 359 360 360 359 359 359 358 358 357 357 357 357 356 356 356 356 355 356 355 355 355 354 354 356 356 358 357 358 358 358 358 358 357 358 358 358 358 359 359 359 358 358 357
350 351 350 352 352 352 353 352 355 355 353 351 351 352 354 353 355 355 356 358 359 360 361 360 360 359 359 358 358 358 357 357 356 356 356 355 355 356 356 355 355 355 354 354 355 356 358 359 359 359 359 359 359 359 359 358 358 359 359 359 359 359 358
350 349 349 350 350 352 355 354 354 354 352 351 351 352 353 354 354 355 357 358 359 360 361 360 361 360 359 359 359 358 358 357 357 356 356 356 355 355 356 355 356 355 355 354 354 355 356 358 360 359 359 360 360 360 360 358 358 359 359 359 359 359 359
350 349 347 350 350 351 354 355 355 355 352 350 350 352 353 354 354 355 356 359 359 360 361 361 362 361 361 360 359 359 359 358 358 357 356 356 356 355 355 355 355 356 355 355 354 354 355 356 358 359 359 359 359 360 360 359 359 359 359 359 359 359 360
348 348 348 348 350 351 353 353 355 354 353 351 350 352 353 355 356 355 357 359 360 361 361 361 361 362 361 361 360 360 360 359 359 357 357 357 356 356 355 355 355 356 355 356 355 355 355 355 357 358 359 359 359 359 359 359 359 358 358 359 359 359 359
346 346 347 348 348 350 351 353 355 354 355 353 350 351 353 354 356 357 358 359 359 361 362 362 362 363 362 361 361 360 360 360 359 358 359 358 357 357 356 355 356 355 356 356 356 356 355 355 356 357 358 359 359 359 359 359 359 358 358 358 358 359 359
344 346 348 348 348 349 350 353 354 355 356 354 351 351 353 354 355 357 357 358 359 360 363 364 364 363 363 363 362 361 361 360 360 360 359 358 358 357 356 356 356 356 355 356 356 356 356 355 356 356 358 359 359 359 359 358 359 359 359 358 358 359 359
346 347 347 348 350 350 351 352 354 356 355 352 351 351 352 354 355 356 357 357 358 358 361 364 365 365 365 364 363 362 362 361 361 361 360 359 359 358 357 356 356 356 356 356 356 357 357 356 356 357 357 358 359 359 359 358 358 359 359 359 359 359 359
349 349 349 351 351 350 350 350 353 354 353 352 352 352 352 353 355 356 356 357 358 359 360 363 366 366 366 366 365 364 364 363 362 361 360 361 359 359 358 357 357 356 356 356 356 356 357 357 357 357 357 358 358 359 359 358 359 358 359 359 359 359 359
356 355 355 354 354 354 354 355 354 352 350 351 351 352 352 354 355 356 357 358 360 360 360 362 365 366 367 367 366 366 365 364 363 362 362 361 359 359 359 358 357 356 355 355 356 356 357 357 357 358 358 357 358 358 359 359 359 359 358 358 358 359 359
367 368 368 366 367 369 370 370 366 358 352 352 352 353 353 354 355 357 358 359 361 361 362 362 363 366 367 367 367 367 366 365 364 363 362 361 360 360 359 359 358 357 357 356 356 355 355 356 356 357 357 357 356 357 358 359 359 359 360 359 359 359 359
363 364 366 368 372 375 374 371 365 360 356 355 355 356 356 357 359 359 359 360 362 363 363 362 362 364 365 367 367 367 367 366 365 363 363 362 360 360 359 359 358 358 357 356 355 355 355 355 357 357 357 357 357 356 357 357 358 359 359 359 360 359 360
356 358 360 361 365 367 365 363 361 358 359 360 361 361 359 359 361 362 363 362 362 362 363 362 363 363 364 365 367 367 367 367 366 365 364 362 361 360 359 359 359 359 358 356 356 356 355 355 356 356 357 358 358 357 358 357 357 359 359 360 360 360 360
355 356 357 357 360 362 363 363 363 362 362 363 364 365 363 361 359 359 361 362 362 364 363 363 363 363 362 364 366 366 367 366 366 366 364 363 362 360 360 359 359 359 358 357 357 355 355 355 355 356 357 358 359 359 358 358 358 359 360 360 361 361 361
356 355 354 355 358 361 362 363 363 361 362 361 361 363 365 364 363 361 360 360 359 360 360 362 363 362 363 362 364 365 366 366 367 366 365 364 364 362 362 361 359 359 358 358 358 356 355 355 355 355 356 357 358 359 359 360 359 359 360 360 361 362 362
355 355 355 355 356 358 359 360 359 360 361 361 361 363 364 364 365 367 367 365 362 359 358 359 360 361 363 363 363 364 364 366 367 366 366 366 364 363 363 362 361 360 359 359 358 357 356 356 355 356 355 356 357 358 359 360 360 361 360 360 360 362 362
352 353 354 355 355 355 356 357 358 359 360 361 363 364 365 366 367 370 371 369 367 365 363 360 358 358 360 360 361 363 364 365 366 366 366 365 365 365 364 363 363 362 360 360 360 359 358 357 356 356 356 356 357 357 358 359 360 361 361 361 361 361 362
353 353 353 354 355 355 354 355 357 359 359 360 361 362 364 367 368 370 370 368 368 369 367 363 361 359 357 357 360 362 363 363 364 365 366 366 365 365 365 364 364 363 362 361 361 361 360 359 358 357 358 358 358 358 359 360 360 360 361 361 362 361 361
352 353 352 353 354 355 354 355 356 357 357 357 358 360 360 363 365 367 366 366 367 368 367 364 364 362 358 355 357 361 363 363 364 365 365 366 366 365 365 365 365 364 363 363 363 363 362 361 360 360 359 360 360 360 362 361 361 361 362 362 363 363 362
350 351 351 351 352 354 354 355 356 356 356 356 356 358 357 358 361 362 361 363 366 368 368 366 364 364 363 358 356 359 362 363 364 366 366 366 366 366 365 365 365 365 366 365 364 364 364 364 363 362 361 361 362 362 363 364 364 364 364 363 364 363 363
346 347 348 349 350 352 353 355 356 355 355 355 355 357 356 356 357 357 358 361 364 367 368 368 367 368 368 361 357 358 362 363 366 366 367 367 366 366 366 367 367 367 367 366 367 366 365 365 365 364 364 363 363 363 363 364 365 366 365 366 366 365 365
346 345 346 347 349 351 353 354 355 354 355 355 355 355 354 354 354 355 356 359 364 366 367 368 370 371 370 366 359 359 363 365 367 368 368 368 368 367 368 368 368 368 368 368 368 367 367 367 366 366 365 365 364 363 364 364 365 366 367 366 366 366 366
349 345 344 347 349 351 353 353 353 354 354 354 354 354 353 353 353 353 354 357 361 364 365 367 369 370 372 368 363 362 364 366 367 369 370 370 370 369 369 369 369 369 369 369 369 368 368 368 367 366 366 366 365 366 365 364 365 365 366 367 367 368 367
350 347 345 347 348 351 353 352 352 352 353 353 354 353 352 352 352 351 352 355 358 361 365 366 368 370 372 369 365 365 366 367 369 371 371 371 371 371 371 372 371 370 370 370 370 370 370 369 368 368 368 367 367 366 365 362 361 361 362 363 364 364 364
347 345 346 347 348 349 351 351 352 352 352 353 352 352 351 352 351 350 350 352 355 359 362 365 367 369 371 371 369 368 368 369 370 371 371 370 368 367 367 368 370 371 372 371 372 371 371 370 370 370 369 368 368 367 364 359 357 356 358 358 358 359 359
342 343 345 348 349 348 349 351 351 352 351 352 352 352 351 350 350 349 349 350 354 357 361 365 368 368 369 372 372 372 371 372 370 370 369 367 363 359 357 358 363 368 369 368 370 372 372 371 370 370 369 368 366 366 364 359 353 349 349 351 351 350 347
343 343 345 348 349 349 350 351 351 351 351 352 351 350 350 349 348 347 347 349 352 355 360 364 366 367 368 370 373 373 373 371 368 366 365 362 360 357 353 352 354 359 362 365 367 370 370 371 371 369 368 367 365 362 357 353 349 345 343 342 340 337 335
344 344 347 349 350 349 350 351 350 351 351 350 350 350 349 348 347 346 347 349 350 353 358 363 365 365 367 368 371 373 372 370 366 362 358 355 353 354 354 350 344 342 346 353 358 362 363 362 362 361 358 357 357 354 346 340 339 338 336 334 333 333 332

ECMWFFLT1_925_thetae_051.txt.gz
Theta_e
347 348 349 350 351 349 350 349 347 347 348 348 348 348 349 349 350 351 351 352 353 352 353 353 353 353 354 353 353 353 353 352 353 352 352 352 351 351 351 350 350 349 349 350 351 351 351 352 352 352 352 352 353 352 351 350 350 350 351 355 357 358 358
346 347 348 349 350 350 351 349 347 348 348 348 349 348 349 349 350 351 351 352 352 352 353 353 353 354 354 354 353 353 353 353 353 353 352 351 352 351 351 350 350 349 349 348 349 350 351 352 352 351 352 352 352 353 352 351 350 351 351 353 356 358 358
345 347 347 348 351 351 350 349 347 347 348 348 349 349 349 349 350 351 351 351 352 352 352 353 353 354 353 354 353 353 353 353 353 352 352 352 352 351 351 351 351 350 349 348 348 348 350 351 353 352 352 352 352 353 352 351 351 352 351 352 354 357 358
347 347 347 349 351 351 350 350 348 347 348 349 349 349 349 350 350 350 350 351 351 352 352 353 353 354 354 354 354 354 353 353 353 353 352 352 352 351 352 352 351 351 350 349 348 348 350 351 352 352 353 352 353 353 353 352 352 352 352 353 353 355 358
349 347 348 348 349 351 350 350 348 347 348 349 350 349 350 350 350 350 351 350 351 351 352 353 353 354 354 354 354 354 354 354 354 353 352 352 351 351 351 351 351 352 351 350 351 350 350 351 352 352 352 352 353 353 353 352 352 352 352 353 353 354 356
349 348 348 348 349 350 350 350 349 347 347 349 349 349 350 351 351 350 350 351 351 351 351 352 353 353 354 354 354 354 354 354 353 353 352 352 351 351 351 351 351 352 352 351 352 351 351 351 351 352 352 351 352 353 353 353 352 352 353 353 354 354 355
348 348 348 348 349 350 350 349 349 347 348 349 349 350 350 351 352 351 351 351 351 351 351 351 352 353 354 354 354 354 353 353 353 353 353 352 351 351 350 351 351 352 352 352 351 352 351 351 351 351 352 351 351 352 353 353 353 353 354 354 355 355 355
347 348 349 348 348 350 350 350 349 349 348 349 349 350 350 351 351 352 351 351 351 351 351 352 352 352 353 353 353 353 353 353 353 353 353 352 351 351 351 351 351 351 353 353 352 352 352 351 351 351 352 352 352 353 353 353 353 353 354 354 355 356 357
347 347 348 349 348 349 351 350 350 349 349 349 349 350 350 351 351 352 352 352 352 352 352 351 352 352 353 353 353 353 353 353 353 352 352 352 352 352 351 351 351 351 352 352 353 352 352 352 351 352 354 353 353 354 353 353 353 353 354 354 355 356 357
348 347 348 349 348 349 350 350 351 351 350 349 349 350 351 350 352 352 353 353 352 353 352 352 352 352 353 353 353 353 353 353 353 352 353 352 352 352 352 352 352 351 352 352 353 353 353 353 353 352 353 354 354 354 354 354 353 354 354 354 355 355 356
347 348 348 348 349 350 351 351 352 352 351 350 349 351 350 351 352 352 353 353 353 354 353 353 353 352 353 353 354 354 353 353 353 352 353 353 352 353 352 352 352 352 353 352 353 353 353 353 354 354 354 354 354 355 354 354 355 354 355 355 355 355 355
348 348 350 349 350 351 353 352 354 354 352 350 349 351 351 351 352 352 352 354 354 354 354 354 354 353 353 354 354 354 354 353 353 353 353 353 353 353 352 352 352 352 353 353 353 353 353 354 355 354 354 354 354 355 355 355 355 355 355 356 356 356 356
349 349 350 350 350 351 354 354 354 354 352 349 349 350 351 352 352 353 353 354 355 355 355 355 355 354 354 354 354 355 354 354 354 354 353 354 353 353 353 353 353 352 353 353 352 354 354 355 355 355 355 355 354 355 355 355 355 355 355 356 357 357 357
351 350 349 350 351 352 354 354 354 354 352 349 349 351 352 352 352 353 353 354 355 355 356 356 355 355 355 355 355 355 355 354 355 354 354 354 354 353 354 353 353 353 353 352 352 353 353 354 354 355 355 355 355 355 355 355 355 355 355 356 356 357 357
350 350 349 350 351 353 354 354 355 354 352 350 349 350 351 352 353 353 354 354 355 356 356 356 357 356 356 356 355 355 355 355 355 355 355 354 354 354 354 353 354 354 353 353 353 352 352 353 354 355 355 355 355 356 356 355 355 355 355 355 356 357 357
348 348 350 350 350 352 352 353 354 354 354 352 349 349 351 352 353 353 353 354 356 356 357 357 357 357 357 356 356 356 356 356 356 356 356 355 355 354 355 354 354 354 354 353 353 352 353 352 353 353 354 355 356 356 356 356 355 355 355 355 355 356 357
348 348 349 349 350 351 351 352 353 353 354 353 349 349 350 351 352 353 353 354 355 356 358 358 358 358 357 357 357 357 357 356 356 356 356 355 355 355 355 355 354 354 354 354 354 353 353 353 352 352 353 354 355 355 356 356 356 356 356 356 356 356 357
349 349 348 349 350 350 351 351 352 353 353 352 350 349 350 351 352 352 352 354 355 356 357 358 359 358 358 359 358 358 358 357 356 356 356 356 355 355 355 354 354 354 354 354 354 354 353 353 353 353 353 353 354 355 356 356 355 356 356 357 357 357 358
348 348 348 348 349 350 351 350 350 351 350 349 349 349 349 350 352 352 353 353 354 356 357 357 359 359 359 359 358 359 358 358 357 357 357 357 356 355 355 354 355 354 354 354 354 354 354 354 354 353 353 353 353 354 354 355 355 355 356 356 356 357 357
346 347 346 347 348 349 349 349 350 349 348 348 349 349 350 351 351 351 353 353 354 355 357 358 358 359 359 359 360 359 359 359 358 358 358 358 357 357 356 355 355 354 354 354 354 353 354 354 354 354 354 354 353 353 354 354 355 355 356 356 356 357 357
356 352 350 349 350 350 350 353 353 349 347 348 348 349 350 350 352 353 353 353 354 356 357 359 360 359 360 360 360 360 359 359 359 358 359 359 358 358 357 357 356 355 355 354 354 354 354 354 354 354 354 354 354 354 354 354 354 355 355 355 356 356 357
368 364 362 360 360 359 356 352 351 349 347 348 349 349 349 350 351 353 354 354 355 356 356 359 361 361 361 361 361 361 361 360 360 360 359 359 359 358 358 357 357 356 356 355 355 354 354 354 354 354 354 355 355 354 355 354 354 354 355 355 356 356 357
364 366 367 365 364 362 356 350 349 350 349 349 350 349 349 351 352 352 353 354 355 356 357 357 360 362 363 362 362 362 362 362 361 360 360 360 359 359 359 358 358 357 357 356 355 355 355 355 354 354 354 355 355 355 355 354 355 355 355 356 356 357 358
361 363 364 363 362 360 357 356 356 356 355 355 356 354 351 351 352 352 353 354 355 356 356 356 358 360 362 363 363 364 363 363 362 361 361 361 360 360 359 359 359 358 357 357 356 356 355 355 354 354 354 354 354 354 355 355 355 355 355 356 356 357 357
359 360 359 360 361 360 359 360 360 360 361 362 364 363 357 352 352 353 354 354 356 357 357 357 358 358 360 362 364 364 364 364 364 363 363 362 361 361 360 360 359 359 358 357 357 356 356 355 355 355 354 354 354 354 354 355 355 355 355 355 355 356 356
357 357 357 357 358 359 359 359 359 360 361 362 364 367 363 358 357 358 357 357 356 357 357 358 359 359 360 361 362 364 365 365 365 364 364 364 362 362 361 361 360 360 359 358 358 357 356 356 355 355 354 354 354 354 354 354 355 355 355 355 355 355 356
353 355 356 356 357 357 356 356 356 357 357 359 364 367 366 364 363 363 363 362 361 362 363 362 360 360 360 361 361 363 364 365 365 365 365 365 364 363 363 361 361 360 359 358 359 358 357 356 356 355 355 354 354 354 354 354 355 355 355 355 356 356 356
351 354 355 356 356 355 355 354 355 355 355 357 360 364 365 365 363 361 362 362 363 365 367 366 365 362 360 361 361 362 364 364 366 366 366 365 365 363 363 362 361 361 360 359 359 358 357 357 356 355 355 355 354 354 354 354 355 355 356 356 357 357 357
349 351 353 354 355 354 353 353 353 354 354 355 356 359 361 361 360 358 358 358 360 364 365 366 367 367 364 361 359 360 362 364 365 366 365 365 365 364 363 363 362 361 360 360 359 358 357 357 356 356 355 355 354 354 354 354 355 355 355 356 356 357 358
347 349 351 352 353 353 352 352 352 352 353 353 354 355 356 357 356 355 354 356 359 363 365 365 366 368 369 365 359 358 361 362 363 365 365 365 365 365 364 364 362 362 361 360 359 358 358 357 357 356 356 355 355 355 355 355 355 355 355 356 356 357 357
346 347 349 350 352 352 351 351 351 351 351 351 352 352 353 353 353 352 352 353 356 360 364 365 365 367 369 368 363 357 357 361 362 362 364 364 365 365 364 363 363 362 362 361 360 359 359 358 358 357 357 357 356 356 356 356 356 356 357 357 357 357 358
346 345 346 348 350 351 351 351 351 351 350 350 351 351 351 351 350 350 350 351 353 357 360 363 365 366 368 370 367 362 357 359 361 361 363 363 364 364 365 364 364 363 362 362 361 361 360 360 359 358 359 358 357 358 357 358 358 359 359 360 360 360 360
347 345 344 346 348 350 350 349 350 350 349 349 350 351 350 350 349 349 349 349 350 354 358 362 364 366 366 369 369 366 360 359 361 362 362 363 364 365 364 364 363 363 363 362 363 362 361 361 360 361 360 360 360 360 360 360 360 361 362 362 363 363 363
346 345 344 346 348 349 349 348 348 348 349 348 350 351 350 349 348 347 348 348 349 351 356 361 362 365 367 368 369 368 362 360 362 364 363 364 365 364 365 365 364 364 364 363 363 364 363 362 362 362 362 362 362 362 362 361 361 362 362 363 364 365 365
342 343 344 346 347 349 349 348 348 349 349 349 350 350 349 348 347 346 346 347 348 351 354 357 362 364 367 367 369 369 365 362 364 365 364 365 364 362 362 363 365 365 365 365 365 365 364 364 364 364 364 364 364 363 362 361 362 363 364 363 363 365 364
339 341 344 347 348 349 349 349 349 349 349 349 349 349 349 347 346 346 347 347 349 350 352 355 360 364 365 367 370 369 367 365 366 365 364 363 360 358 356 357 361 364 365 365 366 366 366 366 365 365 366 365 365 365 364 364 365 363 362 362 362 363 363
340 342 345 346 347 347 348 348 349 349 349 348 348 348 347 346 346 346 348 349 349 349 351 355 360 363 364 366 369 370 368 366 365 363 360 359 357 356 354 352 355 360 363 365 365 366 367 367 367 368 367 367 366 365 364 363 363 361 359 359 358 358 358
343 344 345 347 347 347 347 348 348 348 348 348 348 348 346 346 346 347 348 350 349 349 353 357 362 364 364 365 368 370 368 365 362 358 355 353 353 354 355 354 352 349 352 359 364 365 366 367 368 368 367 367 366 365 363 359 355 353 353 351 350 348 347

ECMWFFLT1_925_thetae_054.txt.gz
Theta_e
349 350 349 349 349 348 348 348 347 346 346 347 348 349 350 350 351 351 352 352 352 352 352 351 351 351 350 351 350 350 350 350 350 350 350 350 350 350 350 350 351 351 351 351 350 351 351 350 350 349 349 349 350 350 350 351 351 350 347 344 344 347 351
349 350 349 349 349 349 349 348 346 346 346 346 347 348 350 350 350 351 351 351 352 351 352 352 351 352 351 351 351 351 351 350 350 350 350 350 350 350 350 350 351 351 351 350 351 350 350 351 350 349 349 349 350 350 350 351 352 351 349 346 345 347 350
348 350 349 349 350 349 349 348 346 347 346 346 346 347 349 349 350 351 351 352 352 351 352 352 352 352 352 352 351 351 351 351 350 350 350 350 350 350 350 351 350 350 351 350 350 350 350 351 350 350 350 349 350 351 350 351 351 352 351 349 347 347 350
348 348 349 349 350 349 349 349 347 347 346 347 346 347 348 349 350 350 351 351 352 351 351 352 352 352 352 352 352 352 351 352 351 351 351 350 350 350 351 351 350 351 351 350 350 349 349 350 350 350 350 350 350 351 350 350 351 352 351 351 349 348 349
347 348 349 348 349 349 349 349 347 346 347 347 347 347 347 348 349 349 350 351 351 351 351 351 352 352 352 352 352 352 352 352 352 352 351 351 351 351 351 351 351 351 350 350 350 349 349 348 349 349 350 350 350 350 350 350 350 351 352 351 350 349 350
346 346 348 347 347 348 349 348 347 347 347 347 347 347 347 348 348 349 349 350 351 351 351 351 351 352 352 352 352 352 352 352 352 352 352 351 351 351 351 351 351 351 351 350 350 349 349 348 347 348 348 349 348 349 351 351 350 351 351 351 351 349 350
345 346 346 347 346 347 347 347 348 347 347 347 347 347 348 347 348 348 349 350 350 351 351 351 352 352 352 352 352 352 352 352 352 352 352 351 351 352 351 351 351 351 351 350 350 350 349 349 349 348 347 347 348 349 350 350 351 351 352 352 352 351 350
345 346 345 345 346 346 347 348 348 347 347 347 347 347 347 348 348 348 349 349 350 351 351 351 352 352 352 352 352 352 353 352 352 352 352 352 352 352 351 351 351 351 351 351 350 350 349 349 349 349 348 349 349 350 351 350 350 350 351 352 352 352 351
344 346 345 345 344 343 346 347 347 347 347 347 347 347 348 347 348 348 348 349 349 350 350 351 352 352 352 353 352 352 352 352 352 352 352 352 352 352 351 351 351 351 351 350 350 350 349 349 350 350 350 349 349 350 350 350 351 351 351 352 352 352 352
344 345 346 345 344 344 346 346 348 348 347 347 347 347 348 348 348 349 348 349 350 350 350 350 351 351 352 353 352 353 353 353 353 352 352 352 352 352 352 351 351 350 351 350 350 350 350 349 350 350 351 350 351 351 351 351 351 351 352 352 352 352 352
342 345 347 347 346 347 346 348 350 351 348 347 347 348 348 348 348 349 349 349 349 349 350 350 350 351 352 352 352 353 352 353 353 352 352 352 352 352 352 351 351 351 350 351 351 350 350 350 350 350 351 351 351 351 351 350 351 352 352 352 352 352 352
342 345 348 348 348 347 348 350 352 353 350 348 346 347 348 348 349 349 349 349 349 350 350 350 351 350 351 352 352 353 353 352 352 352 352 353 352 352 352 351 351 350 350 350 350 350 350 350 351 351 351 351 351 351 350 351 351 351 352 353 353 353 353
344 344 346 348 348 349 350 352 352 352 350 347 347 348 348 348 349 349 349 350 350 350 350 350 351 350 351 352 351 352 352 352 352 352 352 352 352 352 352 351 351 351 351 351 351 351 350 351 351 351 351 351 351 351 351 351 352 352 352 353 353 353 353
344 343 344 346 348 351 352 352 353 353 351 348 347 347 348 348 350 350 350 350 350 350 350 350 350 350 351 351 351 351 352 352 352 352 352 352 351 352 352 351 351 351 351 351 350 350 351 351 351 351 351 352 351 351 352 352 352 352 352 352 352 352 353
342 342 342 346 349 351 352 352 354 353 351 349 347 347 349 349 349 350 350 351 351 351 351 351 351 350 351 351 351 352 352 352 352 352 352 352 351 352 352 351 352 351 351 351 351 351 351 351 351 352 351 351 352 352 352 353 352 352 352 352 352 352 353
338 341 342 346 347 349 351 351 353 353 352 351 348 347 348 348 349 350 350 350 351 351 351 352 351 351 351 351 351 351 351 352 352 352 352 352 351 352 352 352 352 351 351 352 351 352 351 351 352 352 352 352 352 353 353 353 352 352 352 352 352 353 353
338 342 342 345 347 348 350 352 352 353 354 352 349 348 349 348 349 349 350 351 352 352 352 352 352 351 351 351 352 351 352 352 352 353 352 352 352 352 352 352 351 351 351 352 352 351 352 351 351 351 352 353 353 353 353 353 353 353 352 353 352 353 353
340 345 345 345 348 348 350 351 352 353 352 350 348 349 349 350 349 350 350 351 351 352 352 352 352 353 352 353 352 352 352 353 352 353 353 352 353 352 352 352 352 352 352 352 352 352 351 351 351 351 351 352 352 353 353 353 353 353 353 353 353 353 353
343 344 346 346 348 349 349 349 350 352 350 349 348 348 349 350 350 350 351 351 352 352 353 354 354 353 353 353 353 353 353 353 353 353 353 353 353 353 353 352 353 353 353 352 352 352 352 352 351 352 352 351 351 352 353 352 353 353 353 353 353 353 354
346 344 345 347 347 348 349 349 350 349 348 348 348 349 350 350 350 351 351 352 352 353 353 354 354 354 354 354 354 353 354 354 354 354 354 354 354 353 353 353 353 353 353 353 353 352 352 352 352 352 352 351 352 351 351 352 352 352 352 352 353 353 353
352 351 348 348 347 349 350 351 352 350 347 349 349 348 349 350 350 351 351 352 352 353 354 355 355 355 355 355 354 354 355 355 354 355 354 354 354 355 354 354 354 354 353 353 353 353 353 353 353 353 352 352 352 352 351 351 351 351 351 351 352 353 353
357 353 351 349 350 353 352 349 349 348 348 348 349 349 349 349 350 351 351 352 352 354 355 355 356 356 356 356 355 355 356 355 355 355 355 355 355 354 354 355 354 354 354 353 353 353 353 353 353 353 353 353 352 352 352 352 351 351 351 351 352 352 353
361 355 356 352 349 348 347 345 345 347 348 348 349 348 349 349 350 351 351 352 352 353 355 355 357 357 357 357 357 356 356 356 356 356 356 356 356 355 355 355 355 355 354 354 354 354 353 353 353 353 353 353 353 352 352 353 352 352 351 352 352 352 353
359 358 359 355 350 346 344 345 346 347 347 348 348 348 349 349 350 351 351 352 352 353 354 355 356 356 357 357 357 357 357 357 357 357 357 356 356 356 356 355 355 355 355 354 354 353 354 354 353 353 353 353 353 353 352 353 352 352 352 352 352 353 352
359 359 357 353 351 349 346 347 348 347 347 348 347 348 349 350 350 351 351 352 352 353 354 355 357 356 357 357 357 358 358 357 357 358 357 357 357 356 357 356 356 356 356 355 355 355 354 354 354 354 353 353 353 353 353 353 353 353 352 352 353 353 353
357 359 358 355 353 353 352 351 351 350 349 349 347 349 349 350 350 351 352 352 352 353 354 355 356 356 357 357 357 358 358 358 359 358 358 358 358 358 357 357 357 357 356 356 356 355 355 355 354 354 354 353 354 353 353 353 353 353 354 353 353 353 353
354 355 357 357 357 357 357 356 357 357 357 355 352 349 348 350 351 352 352 352 352 353 354 354 356 357 358 358 358 359 359 359 359 359 359 359 358 358 358 358 358 358 358 357 356 356 356 356 355 355 354 354 354 353 353 354 353 353 353 353 353 353 353
352 353 354 354 356 356 356 358 358 358 360 360 357 352 350 351 354 355 354 354 355 357 356 356 356 356 357 359 360 360 360 360 359 360 359 359 359 359 359 359 358 358 358 357 357 357 357 357 356 355 355 355 354 354 354 354 354 354 354 353 353 353 353
349 351 352 352 353 354 354 355 355 354 357 359 358 356 354 355 357 358 357 357 359 362 361 360 358 357 357 357 359 359 361 361 361 362 361 360 361 360 360 360 359 359 359 358 358 358 357 357 357 356 356 355 355 354 354 354 354 354 353 354 353 353 354
347 349 351 350 351 351 351 351 351 351 352 354 356 358 357 358 357 356 356 357 360 363 364 364 364 362 361 359 357 358 360 360 362 363 362 362 362 361 361 361 360 360 360 359 358 358 357 357 357 356 356 355 355 355 355 354 354 354 354 354 353 353 353
346 347 348 349 349 349 349 349 349 349 348 349 351 354 355 356 356 353 353 355 359 362 364 365 365 366 365 364 361 359 358 360 361 362 363 363 363 363 362 362 361 361 360 360 359 359 358 358 357 357 356 356 355 355 355 355 355 355 354 354 354 354 354
344 345 346 347 348 348 348 348 348 347 347 347 347 348 350 351 352 350 350 352 356 361 363 364 365 366 366 367 366 363 359 359 360 361 362 362 363 363 363 363 362 362 361 360 360 359 359 358 357 357 356 356 356 356 355 355 355 354 354 354 354 354 354
344 344 344 346 347 347 347 347 347 347 346 345 345 346 346 347 348 348 349 350 353 357 361 363 364 365 365 366 367 366 361 358 358 360 361 362 363 363 363 364 363 362 361 361 360 359 358 358 358 357 356 356 356 356 356 355 355 355 355 355 355 355 355
343 344 344 345 347 348 347 346 346 346 345 344 345 345 345 346 347 347 348 350 351 354 358 361 363 364 365 366 367 368 365 360 358 358 359 361 362 362 363 363 363 363 362 361 361 360 359 359 358 357 357 357 357 356 356 356 355 356 356 356 357 356 357
342 342 344 345 346 346 347 345 345 345 344 344 345 345 346 347 347 348 348 350 351 354 356 360 361 364 364 365 367 368 366 363 359 358 358 359 360 359 359 360 361 362 362 362 361 361 360 360 360 359 358 358 358 357 357 357 357 358 358 359 359 358 359
341 342 343 344 345 347 346 346 345 345 344 344 345 346 346 347 348 348 349 349 351 354 356 359 362 363 365 365 367 368 367 363 361 360 360 358 357 355 353 353 356 358 360 360 362 362 361 361 361 360 360 359 359 359 359 359 360 361 360 360 360 360 360
341 342 343 344 345 345 345 345 345 344 344 344 345 345 345 346 348 348 348 349 351 354 357 360 362 364 364 365 368 369 367 364 362 361 359 357 355 353 350 350 352 355 358 359 361 361 362 362 362 362 362 362 361 361 361 361 361 361 361 361 361 361 361
340 342 343 343 343 343 343 344 343 342 342 344 344 344 345 346 346 347 349 350 352 355 359 360 361 363 363 365 368 368 365 364 362 360 356 353 351 351 351 352 351 350 352 356 360 361 362 363 363 363 363 363 363 363 362 361 361 361 361 361 360 360 360

ECMWFFLT1_925_thetae_057.txt.gz
Theta_e
351 350 350 349 349 348 348 350 352 352 353 354 354 354 354 353 353 354 354 354 354 354 353 352 352 352 353 352 352 351 351 351 350 348 349 349 349 350 349 349 349 349 350 350 348 347 346 347 349 349 349 349 349 349 349 349 349 349 350 350 350 349 349
351 351 350 349 349 349 349 350 351 352 352 353 354 353 353 354 355 355 355 354 354 354 354 352 353 353 353 352 352 352 351 351 351 350 350 350 349 349 349 348 349 348 348 349 348 347 346 347 348 349 349 349 349 349 348 349 349 349 350 350 351 350 350
351 351 350 350 350 350 349 350 350 351 351 352 353 353 354 355 355 355 355 355 354 354 354 353 353 353 353 352 353 352 352 352 352 351 351 351 349 350 350 348 348 348 348 348 347 347 348 348 349 349 349 349 349 349 348 348 348 349 350 350 351 352 352
351 351 350 350 350 350 349 350 350 350 350 351 352 353 354 355 355 355 355 355 355 355 355 354 353 353 353 353 353 353 352 352 352 352 352 352 351 351 351 349 349 349 349 348 348 349 349 349 350 349 349 350 349 349 349 348 349 349 350 350 351 352 353
351 350 351 351 350 350 350 349 350 351 349 350 351 352 354 354 355 355 355 355 355 355 355 354 354 354 354 353 353 353 353 352 352 352 352 353 352 351 351 350 350 350 350 349 349 349 349 350 350 350 350 350 349 350 349 349 349 349 350 350 350 352 354
350 351 351 351 350 350 349 348 350 351 349 349 350 352 353 354 354 354 354 355 355 355 355 355 354 354 354 354 354 353 353 353 352 352 353 353 353 352 351 351 350 350 350 350 349 350 350 350 350 350 350 350 350 350 350 349 350 350 350 350 351 352 354
348 350 351 351 350 350 349 349 350 350 350 349 350 350 352 352 352 353 354 354 355 355 355 355 354 355 355 354 354 354 354 354 353 353 353 354 353 352 352 351 351 350 351 350 350 350 350 350 350 350 349 349 350 351 350 349 349 350 351 350 351 351 353
347 350 350 350 350 349 348 349 350 350 350 349 349 350 351 351 352 353 353 354 354 354 355 355 355 355 355 355 355 355 354 354 354 353 353 354 353 353 353 352 351 351 351 351 350 350 350 350 350 350 350 350 350 349 348 348 348 349 350 350 350 351 352
346 349 349 349 348 348 349 349 350 351 350 350 350 349 350 350 351 352 352 353 353 354 354 354 355 355 356 356 355 355 355 355 355 354 354 354 354 354 353 353 352 351 351 351 351 351 350 350 350 350 349 349 349 348 348 348 348 348 349 349 349 350 352
346 349 350 348 348 349 349 349 351 352 352 352 351 350 350 350 350 351 352 353 353 354 354 354 354 355 356 356 355 355 355 355 355 355 354 355 354 354 354 354 354 353 352 352 352 352 351 350 350 350 350 349 349 349 348 348 349 349 349 349 349 350 350
346 350 351 349 349 350 349 350 353 354 354 354 352 351 350 350 350 351 351 352 353 353 354 354 354 355 355 355 355 355 356 356 355 355 355 355 354 354 354 354 354 354 353 353 353 353 352 351 350 350 350 350 349 349 348 348 349 349 350 350 350 350 350
343 349 352 351 350 350 351 353 355 356 357 355 351 351 351 350 350 350 351 352 352 353 353 353 354 354 355 355 355 355 356 355 355 355 355 355 354 354 354 354 354 354 353 353 353 353 353 352 351 351 350 350 349 349 348 348 349 350 350 351 351 351 351
340 345 349 350 350 351 354 356 357 357 358 354 351 351 351 351 350 350 351 352 351 353 353 353 354 354 355 355 355 355 356 356 355 355 355 355 355 355 354 354 354 354 353 353 353 354 354 353 353 352 350 350 350 349 349 348 349 350 350 351 352 351 351
338 340 344 348 350 352 355 357 358 357 356 354 352 351 351 351 350 350 351 352 351 352 353 353 354 355 355 355 355 356 356 355 356 355 355 355 355 355 355 354 354 354 354 354 353 354 354 354 354 353 352 351 350 350 350 349 349 350 350 350 351 352 352
333 335 340 345 349 353 355 355 357 357 356 354 352 352 351 351 351 351 351 352 351 352 353 353 354 354 355 355 356 356 356 356 356 356 356 355 355 355 355 354 354 354 354 354 354 354 354 354 354 354 354 353 352 352 352 352 352 351 351 350 351 352 353
331 330 335 342 346 351 353 353 355 357 357 356 353 352 352 352 352 352 352 351 351 352 353 353 354 355 354 355 356 356 356 356 356 356 356 355 354 354 354 355 355 354 354 354 354 354 354 354 355 355 355 354 354 354 354 354 353 351 350 350 351 352 354
339 332 332 337 343 349 352 352 354 357 357 356 355 353 352 352 352 352 351 352 352 352 352 353 354 355 354 355 356 356 356 356 355 355 355 354 354 354 353 354 355 355 355 354 354 354 354 355 355 354 355 355 355 355 355 355 353 351 349 349 349 352 354
350 341 334 334 339 347 350 350 352 355 354 353 354 353 352 353 353 352 351 352 352 352 352 353 354 354 354 355 356 356 356 356 355 355 355 354 354 354 353 354 355 355 355 355 354 354 354 355 355 354 355 355 355 355 356 355 353 350 349 349 349 350 352
356 349 341 335 336 342 347 348 350 352 351 351 352 352 352 353 353 352 352 352 352 352 352 353 353 354 354 355 356 356 355 356 356 356 355 354 354 354 354 354 355 355 355 355 355 355 355 354 355 355 355 355 356 356 356 356 354 352 350 349 349 350 351
357 354 347 338 334 335 342 348 350 352 353 353 352 351 351 352 352 353 352 353 353 352 353 353 353 354 355 355 356 355 355 355 356 355 355 354 353 354 355 355 355 355 355 355 355 356 355 355 355 355 356 355 356 356 356 356 355 353 351 350 350 350 351
356 357 351 341 336 338 345 351 352 352 353 353 351 352 352 352 352 353 353 353 354 353 354 354 354 355 355 356 356 356 355 355 356 356 356 355 354 355 355 356 356 356 355 355 356 356 356 355 355 356 356 355 355 356 356 356 354 353 352 351 350 351 351
355 357 353 343 340 345 349 350 350 352 353 352 351 351 352 352 352 352 353 353 354 354 355 355 356 356 356 356 356 356 356 356 356 357 356 356 355 356 356 356 356 356 355 356 356 356 356 356 356 356 356 356 355 355 356 355 354 353 352 351 351 351 352
354 355 353 345 342 348 351 351 350 352 353 351 351 351 351 351 352 352 353 353 353 355 355 355 357 357 356 357 356 356 357 357 356 357 357 357 357 357 357 357 356 356 356 356 356 357 357 357 356 356 356 356 356 356 356 355 354 353 352 352 351 351 351
354 354 350 344 345 349 351 352 352 352 352 352 352 352 352 352 352 352 353 353 354 355 355 356 358 358 358 358 358 358 358 357 357 357 358 358 358 358 358 358 357 357 356 356 357 357 357 357 357 357 357 357 356 356 356 356 355 354 353 352 352 351 351
354 354 351 347 347 348 351 352 353 352 352 352 352 352 353 352 352 353 355 355 355 355 356 357 358 359 359 358 358 359 358 357 358 358 358 359 359 358 358 358 357 358 357 357 357 357 357 358 357 357 358 357 357 356 356 356 356 355 354 353 352 352 351
354 354 354 352 349 350 353 355 354 352 352 353 352 353 353 353 353 355 356 356 355 355 356 358 359 359 359 358 359 359 358 357 358 358 359 359 359 358 358 358 358 358 358 358 358 358 358 358 358 358 358 358 358 356 356 356 356 356 355 354 353 352 352
353 355 357 358 357 355 353 353 353 352 352 353 353 352 352 353 355 357 357 356 355 356 357 358 359 359 359 360 361 360 359 359 359 359 360 359 359 359 359 359 359 359 359 359 358 358 359 359 358 358 358 358 358 358 357 356 356 356 355 354 353 353 352
352 354 356 358 360 359 356 354 354 352 352 353 353 352 353 354 357 359 359 358 357 357 358 358 358 359 360 361 361 361 361 360 360 360 360 360 360 360 360 360 360 360 360 359 359 359 359 359 359 359 359 359 358 358 358 357 356 355 355 355 354 353 353
350 352 353 355 357 358 359 360 358 355 354 352 352 353 353 355 359 360 359 359 358 358 358 358 357 358 360 360 361 362 361 360 360 360 360 361 362 361 361 361 360 360 361 360 360 360 360 361 360 360 359 360 359 359 359 358 357 356 355 355 355 354 353
349 350 352 353 354 355 358 360 361 360 358 355 355 355 355 357 361 362 361 361 358 356 356 356 356 357 359 360 361 362 361 360 361 361 361 362 362 362 362 363 362 362 362 362 361 362 362 361 361 361 360 360 361 360 360 359 358 357 356 355 355 354 354
349 350 351 352 353 353 355 357 358 359 359 359 359 358 357 358 361 363 364 360 356 354 355 355 355 356 358 361 362 362 362 362 362 363 362 363 363 363 363 364 363 363 364 363 362 362 362 362 362 361 361 361 361 361 361 360 360 359 357 356 356 355 355
348 350 351 351 351 352 353 354 355 355 356 356 357 358 360 360 361 362 362 358 355 355 355 355 356 357 358 361 361 362 363 364 364 364 364 364 364 364 364 364 364 364 364 364 364 363 363 363 363 362 362 362 362 362 362 361 360 359 359 357 356 355 355
348 349 350 350 350 351 351 352 352 353 353 353 354 355 357 358 358 359 359 358 358 358 358 357 358 358 359 360 360 361 363 364 364 365 365 365 365 365 365 365 365 365 365 365 364 364 364 363 363 363 362 362 363 363 363 363 362 361 360 358 357 356 355
347 348 349 350 350 350 350 351 351 351 351 351 352 352 352 353 354 355 357 360 361 362 364 363 362 362 362 361 360 361 361 362 363 364 366 367 367 367 367 367 366 366 366 366 365 365 365 364 364 364 364 363 364 364 364 363 362 361 360 360 358 357 355
347 348 349 349 350 349 349 349 350 349 349 350 350 351 351 350 350 351 354 358 360 364 367 367 365 365 365 365 365 363 361 361 361 363 365 367 367 366 366 366 366 367 367 366 366 365 365 365 365 364 364 364 364 364 365 365 363 362 361 360 359 358 357
345 347 348 348 349 349 348 348 348 348 348 348 348 349 349 348 349 350 352 354 357 361 364 365 365 366 366 367 369 367 364 363 363 363 365 365 363 361 360 359 361 364 365 365 365 364 364 364 364 364 364 364 364 364 364 364 363 362 360 360 359 358 357
343 345 346 346 346 347 347 347 346 346 346 346 346 346 347 347 347 349 351 353 355 358 360 362 364 367 368 368 369 368 366 365 365 364 363 361 358 357 354 352 354 357 360 362 362 362 362 363 362 363 363 363 363 363 362 362 362 361 360 360 359 358 357
340 341 343 344 343 344 344 344 344 344 344 344 343 344 344 345 346 349 352 354 357 359 360 361 363 366 368 368 368 367 366 365 364 362 359 356 355 353 352 351 350 350 353 356 359 360 361 361 361 361 361 361 362 361 361 360 360 359 359 359 359 358 357

ECMWFFLT1_925_thetae_060.txt.gz
Theta_e
352 352 352 353 354 355 355 356 358 360 358 359 359 358 358 357 358 359 359 360 361 362 361 360 359 359 357 357 357 357 357 356 356 356 355 356 353 352 354 353 353 353 353 353 355 355 356 356 355 356 359 360 359 359 358 357 356 356 357 357 357 357 357
350 351 352 353 353 354 355 358 359 359 358 358 359 358 358 357 358 359 359 360 361 361 361 361 360 359 358 357 357 358 357 356 356 356 356 356 355 354 354 354 353 354 354 352 353 356 358 358 357 358 359 359 358 358 358 358 357 357 357 358 358 358 359
347 350 352 352 353 354 355 357 359 358 358 358 358 358 358 357 358 359 359 360 362 361 362 361 361 360 359 359 358 358 358 357 357 357 356 356 356 355 354 356 354 354 354 354 353 355 357 358 359 359 358 358 357 357 358 358 358 357 357 358 358 358 360
344 348 351 352 354 354 354 355 358 358 357 357 358 358 358 359 359 359 359 360 360 361 362 361 361 360 360 359 360 360 359 358 358 358 357 356 356 355 354 356 356 353 354 354 354 354 356 358 359 359 358 357 357 358 358 358 357 358 358 358 358 358 359
343 346 349 353 354 353 353 354 358 358 358 357 358 358 359 359 359 358 359 360 360 361 361 361 360 360 360 360 360 360 360 359 358 358 358 356 356 357 356 356 356 354 353 354 355 355 356 357 358 359 359 358 357 357 358 359 357 358 359 358 357 357 357
344 346 348 352 353 353 353 353 356 357 357 357 357 358 359 359 359 359 359 360 360 360 360 360 360 359 359 360 360 360 360 359 359 359 359 358 357 358 357 356 356 355 354 354 355 356 357 358 357 357 359 358 357 356 356 358 357 357 358 359 358 357 356
342 347 349 351 352 353 353 353 355 357 356 356 357 357 358 358 358 358 358 359 359 360 360 359 360 359 360 360 359 360 360 361 360 360 359 359 358 358 358 357 357 357 356 356 356 356 358 359 358 357 358 358 357 357 355 357 358 357 357 359 359 359 358
342 346 351 351 352 352 353 353 354 356 356 356 355 357 358 356 358 358 358 359 358 358 360 359 359 359 360 360 360 360 360 360 361 360 360 359 358 358 359 359 358 358 357 356 357 357 358 359 358 357 357 358 358 358 358 358 360 358 356 358 360 359 358
341 346 351 352 350 351 352 353 356 357 356 356 355 357 357 357 357 358 357 358 358 358 358 358 358 358 360 360 360 360 360 360 360 360 359 359 358 358 359 359 358 357 357 357 357 358 358 357 358 358 358 359 359 359 360 359 360 360 357 358 360 361 358
340 346 352 353 351 351 352 353 356 357 356 357 356 356 356 356 357 357 358 357 357 357 357 358 358 359 360 361 360 360 360 360 360 360 360 359 358 358 358 358 358 358 358 357 357 358 358 358 357 358 359 360 360 360 360 361 361 360 358 359 359 361 359
339 348 354 354 352 353 353 354 357 358 358 359 355 355 356 356 357 358 357 357 357 357 357 358 357 358 360 361 361 360 360 360 360 359 360 359 358 358 357 357 357 358 359 358 357 357 358 359 358 359 360 361 360 360 361 361 361 360 358 357 359 359 359
341 350 356 356 355 353 354 357 359 360 360 359 355 356 356 356 357 356 356 356 356 356 357 357 358 358 359 361 360 360 360 360 360 360 360 359 358 357 357 357 356 357 358 358 358 357 358 359 359 358 360 361 361 361 361 362 361 360 358 356 357 359 358
342 346 351 355 355 354 357 359 360 360 361 359 356 355 355 356 357 356 356 357 356 357 357 357 358 359 359 361 361 360 361 360 360 359 359 359 358 357 357 357 356 356 358 359 358 357 356 357 359 359 360 361 362 360 361 362 362 361 360 358 357 358 359
339 339 343 350 354 356 357 358 361 361 360 359 357 355 355 356 356 355 356 356 356 356 357 357 359 359 359 360 361 360 361 360 360 360 360 360 360 358 357 358 356 357 358 359 358 358 356 356 358 360 360 361 361 361 361 362 362 362 362 360 358 357 359
336 333 336 343 351 356 356 358 362 362 360 360 358 356 355 356 355 355 356 356 356 356 357 357 358 358 359 361 361 361 361 360 360 361 360 361 361 360 360 359 358 357 358 360 359 358 356 356 356 359 360 361 361 361 361 361 362 362 361 362 361 358 357
339 336 334 336 345 354 356 358 360 364 364 361 358 356 356 355 355 355 355 356 357 356 356 357 358 359 359 360 361 361 362 361 361 362 361 361 361 361 361 359 360 359 359 360 360 359 358 358 357 358 359 360 361 361 361 360 361 361 359 359 359 360 358
344 345 345 341 341 347 353 356 359 363 364 363 360 358 356 355 355 355 355 355 356 356 356 357 358 359 360 360 361 362 361 362 362 362 363 362 363 362 361 360 360 360 360 360 360 360 359 359 359 358 358 360 361 361 361 361 360 359 357 354 353 356 360
351 354 355 353 352 348 348 351 355 360 361 360 359 357 356 356 356 355 355 356 355 356 356 356 358 359 360 360 361 362 363 362 363 363 363 363 363 364 363 361 361 361 361 361 361 361 361 361 360 360 358 360 360 360 361 361 360 358 356 352 348 348 355
355 355 356 358 359 356 351 347 349 355 357 359 358 356 355 356 357 355 356 356 356 355 355 357 358 359 361 360 361 363 364 363 364 364 364 365 364 365 364 363 362 361 361 361 361 362 362 362 361 361 361 360 360 360 361 360 360 359 356 353 349 344 347
356 356 358 357 358 359 358 353 348 350 356 357 356 355 356 355 357 357 356 355 356 356 356 357 358 360 361 360 362 365 365 364 365 365 365 365 365 365 365 363 362 362 362 362 362 362 362 362 362 362 362 361 360 360 360 360 360 359 358 354 351 347 346
355 356 357 358 359 361 362 359 351 347 352 356 354 354 355 356 356 356 355 356 356 356 356 357 358 360 361 361 363 365 365 365 365 365 365 366 365 364 365 364 364 363 361 361 362 363 363 362 362 362 363 362 362 361 361 361 359 359 359 356 354 351 350
354 355 355 357 358 359 362 361 353 345 348 354 353 353 355 355 355 355 356 356 355 355 357 357 358 360 361 362 363 365 365 364 365 366 365 365 365 364 365 364 364 364 362 362 362 362 363 363 363 363 363 362 362 361 361 361 359 359 358 357 355 354 353
351 353 355 356 358 360 360 360 352 344 347 353 352 351 354 354 355 355 355 354 356 357 357 357 359 361 361 362 362 364 365 364 364 365 365 365 365 364 364 364 364 364 363 362 362 362 363 363 363 362 362 362 362 362 362 361 360 359 357 356 356 355 354
350 352 354 355 358 361 357 353 349 344 347 352 352 351 353 353 354 356 355 355 356 356 357 358 360 361 361 362 363 364 365 364 364 364 364 364 364 364 364 364 364 365 364 362 362 362 362 363 363 363 362 362 363 363 362 362 361 359 358 356 355 354 354
350 351 354 357 359 359 353 349 349 346 348 352 353 351 352 353 355 355 355 356 356 357 357 358 360 361 362 362 362 364 364 364 364 364 364 364 364 364 364 365 364 364 364 363 362 362 362 362 362 363 363 362 362 362 362 362 362 361 358 357 355 354 354
352 352 354 358 360 360 353 350 351 349 350 353 353 351 352 355 354 355 356 357 357 356 358 359 360 361 363 363 362 364 364 364 364 364 363 365 365 364 364 365 365 365 364 363 363 362 362 362 362 362 363 362 362 362 361 361 362 361 360 358 357 355 354
354 354 356 358 359 360 355 352 353 352 351 352 352 352 354 355 355 356 358 358 358 357 358 359 361 363 363 362 363 364 364 364 364 364 364 364 365 365 365 365 364 364 364 364 362 362 362 363 361 362 362 362 362 363 362 362 362 362 360 359 358 356 355
354 354 356 357 359 359 357 354 355 353 350 353 354 354 354 354 355 358 359 358 359 358 358 360 362 364 364 364 363 365 365 364 364 364 363 363 365 365 364 365 364 364 364 364 362 363 363 363 363 363 362 363 363 364 364 363 362 361 361 360 359 357 356
354 352 354 356 356 359 359 355 354 352 353 355 354 354 355 355 357 360 360 359 360 358 358 361 363 365 366 365 364 365 366 366 365 364 363 363 364 365 365 365 365 364 364 364 363 364 364 364 364 363 364 364 364 364 364 364 363 362 361 360 359 358 357
354 352 354 355 356 358 360 360 355 351 354 356 355 356 356 357 361 363 361 361 360 359 359 363 365 367 367 365 366 367 367 367 365 364 363 364 365 365 365 366 365 365 365 366 365 365 365 365 365 364 363 363 364 363 364 364 364 364 362 360 359 358 357
353 352 354 355 356 357 359 362 360 356 356 356 355 356 357 359 364 365 364 363 362 360 362 366 368 369 367 366 366 368 368 367 366 364 363 363 364 366 367 367 366 366 366 366 366 366 366 365 365 364 364 363 363 363 363 364 365 366 365 362 360 358 358
352 351 352 354 355 356 357 358 362 364 364 362 359 358 359 363 366 366 365 364 364 363 366 370 369 369 367 368 367 368 368 367 366 365 365 364 364 366 367 367 367 367 367 367 367 367 366 366 365 365 364 364 364 364 364 366 366 367 367 365 362 360 358
351 350 350 352 352 355 357 357 359 363 365 366 365 363 363 364 366 366 368 368 366 365 368 371 370 368 368 368 367 367 367 367 366 364 365 365 365 366 367 367 367 368 368 368 368 368 367 366 366 366 365 365 365 365 366 366 367 368 368 367 363 361 359
349 350 349 350 350 351 354 355 358 360 361 362 363 365 366 368 366 368 369 367 364 365 369 369 368 368 368 367 366 367 367 367 366 365 365 366 366 366 368 368 368 368 369 369 369 368 368 368 367 367 366 365 365 367 367 368 369 369 369 368 366 363 359
348 349 347 348 349 348 350 352 354 356 357 357 359 361 363 365 366 367 369 368 367 369 370 369 368 368 368 367 367 367 368 367 367 365 365 367 368 368 368 368 368 368 368 369 369 368 368 367 368 367 366 365 366 367 368 370 369 369 369 369 368 365 363
345 346 344 346 346 347 348 350 351 352 354 355 356 358 359 361 362 365 367 368 369 370 370 370 369 369 369 369 368 367 367 368 367 366 366 367 368 369 366 363 365 366 367 367 368 368 367 366 368 369 368 367 367 368 369 370 370 369 368 367 365 364 363
341 341 341 343 343 345 347 347 347 350 351 353 354 355 356 358 359 361 363 365 367 368 369 370 369 368 369 370 369 368 368 367 366 367 367 366 368 370 365 360 360 362 363 364 366 366 367 366 366 367 369 368 368 368 368 367 368 368 367 366 364 362 362
336 336 338 340 341 343 344 345 346 347 349 350 353 353 354 356 357 359 361 362 365 367 369 370 369 368 368 369 370 372 372 369 367 369 369 368 369 370 368 363 361 358 356 359 361 363 365 365 365 365 366 365 366 367 366 365 366 365 363 362 361 361 360

ECMWFFLT1_925_thetae_063.txt.gz
Theta_e
348 348 353 354 354 354 354 355 356 356 357 360 360 359 359 359 360 361 362 364 365 365 365 364 364 364 364 363 361 360 359 357 357 355 353 352 349 349 352 352 351 348 345 347 351 352 353 352 351 351 354 358 359 358 359 360 360 359 358 359 359 358 357
349 346 349 354 353 353 355 357 359 358 359 360 360 359 359 360 361 362 363 364 365 366 366 365 365 365 364 364 362 361 361 359 358 357 354 354 352 350 351 351 351 351 347 343 347 351 353 354 353 352 353 356 358 358 358 360 360 359 357 358 360 360 360
349 346 348 351 353 354 353 355 358 360 361 361 360 360 360 361 362 362 362 364 366 366 366 366 366 365 365 364 363 363 362 361 360 359 357 355 355 352 350 351 352 351 350 347 344 348 352 354 356 356 354 354 355 357 358 358 360 360 358 357 359 359 360
348 348 349 351 352 353 353 355 357 361 362 361 362 361 361 361 362 362 364 364 366 366 367 367 366 365 365 364 363 363 363 362 361 361 358 354 354 353 351 352 353 351 351 350 347 345 349 352 356 357 356 355 355 355 357 357 357 358 359 359 358 358 359
347 348 349 350 352 354 355 354 357 362 362 361 363 362 362 362 362 363 364 364 366 366 367 367 366 365 364 364 363 363 362 362 361 361 359 355 354 354 352 351 352 352 350 351 350 348 348 351 354 357 359 358 356 355 355 357 356 357 359 359 359 358 356
343 347 350 350 350 353 353 352 354 358 361 361 362 362 362 362 361 362 364 364 365 366 367 366 365 365 365 363 362 362 361 361 362 361 360 357 354 354 354 352 353 353 351 350 352 351 350 351 353 356 359 359 356 354 354 357 357 356 358 359 359 357 355
341 344 348 350 351 351 350 351 353 356 359 361 360 362 362 361 362 361 362 363 364 365 366 366 364 364 364 363 361 361 361 361 362 362 361 358 355 355 357 356 354 355 353 351 352 352 353 354 354 355 357 357 355 352 352 354 356 356 357 359 360 359 357
340 342 344 349 349 348 346 350 354 356 357 358 359 361 362 361 362 362 362 363 364 364 365 364 363 362 363 363 361 362 362 361 363 363 362 360 358 357 357 358 357 356 354 353 352 352 354 356 357 355 356 357 356 354 353 354 356 356 355 357 360 360 359
339 342 342 345 346 345 346 349 353 356 357 357 359 361 362 361 362 362 361 361 362 363 363 362 362 362 363 364 362 363 362 362 363 364 363 360 359 358 357 357 358 357 356 354 353 353 355 356 358 358 357 357 356 357 356 355 357 358 356 357 358 360 358
339 343 344 345 345 346 344 345 352 357 358 358 359 362 363 362 361 360 361 361 361 361 361 361 359 360 363 363 362 363 363 363 364 363 361 360 359 358 356 356 358 357 357 355 353 354 356 357 359 359 359 358 357 359 359 358 359 360 358 357 358 359 360
339 344 347 347 348 349 348 348 355 360 358 357 360 362 362 362 362 361 360 360 361 360 359 359 358 358 362 362 362 363 363 363 363 362 362 360 359 358 356 356 357 357 358 357 355 353 355 358 359 360 361 361 358 359 361 361 361 361 359 357 357 358 360
339 344 350 351 348 348 353 355 357 360 360 360 360 362 361 362 362 362 361 360 361 359 358 358 357 358 361 363 362 362 362 362 361 361 361 360 357 357 357 356 355 357 359 359 356 354 354 358 360 359 361 362 360 360 361 362 362 362 360 356 356 358 358
340 343 348 350 348 349 357 361 360 361 364 363 361 360 361 362 362 360 361 361 360 359 358 358 357 357 360 362 361 360 361 362 360 361 360 361 358 356 356 356 353 353 357 358 357 355 353 355 360 360 360 363 362 361 361 362 362 363 362 359 354 356 358
339 342 346 351 353 355 358 362 363 364 364 362 360 359 360 361 361 361 361 361 361 359 359 358 357 357 360 362 362 360 361 361 361 359 359 359 358 356 356 355 353 351 354 356 357 356 354 354 358 359 360 362 363 362 362 363 362 362 364 361 356 355 356
336 336 341 346 352 355 356 359 364 364 362 362 360 360 360 361 361 361 360 361 361 360 359 359 358 357 359 361 362 362 362 361 360 359 360 360 358 357 356 355 354 353 352 355 357 356 354 352 354 358 360 360 363 363 362 363 363 363 364 363 360 355 353
336 335 336 338 346 352 355 358 362 364 366 365 362 360 359 360 360 361 361 362 362 360 359 359 358 359 360 362 362 363 362 362 361 360 360 360 361 359 357 356 355 355 354 355 357 356 356 354 352 355 359 360 362 363 362 362 363 363 362 362 361 359 354
340 341 342 342 343 347 350 353 357 364 367 366 363 360 360 359 360 360 360 361 361 360 360 360 360 360 360 362 363 364 364 363 362 362 361 361 362 361 360 358 357 355 355 355 358 357 358 355 353 353 355 358 361 363 362 361 361 362 362 359 359 359 358
344 343 343 345 347 349 350 351 352 359 364 364 363 361 359 359 359 359 359 360 361 361 360 359 361 362 361 364 364 365 366 364 364 364 362 362 363 363 362 360 358 357 357 356 358 360 360 359 357 355 353 355 359 361 362 361 360 360 361 359 355 355 358
344 343 343 346 348 350 352 352 351 354 358 363 363 360 359 359 358 359 359 359 360 360 360 360 361 363 363 363 365 366 367 366 365 365 365 364 366 367 365 363 360 359 360 359 360 363 363 361 359 358 357 355 356 359 360 360 361 359 359 359 355 352 353
344 344 346 347 346 349 354 358 359 359 359 360 360 360 360 357 357 359 358 358 359 359 359 360 360 362 363 364 365 367 368 367 367 367 367 368 368 368 368 365 363 362 361 361 363 364 365 364 361 361 361 360 358 359 360 360 360 360 359 358 357 353 350
346 349 350 350 349 353 357 362 363 364 363 360 356 357 359 357 357 359 358 357 359 359 360 360 360 363 363 364 366 368 368 369 368 368 369 369 369 370 368 367 366 364 362 363 364 365 366 365 364 363 364 362 361 360 361 360 359 360 361 359 358 356 353
347 348 349 351 353 356 360 360 361 363 364 362 358 354 356 357 357 357 358 358 359 359 359 360 361 363 363 364 366 369 369 369 369 370 371 371 370 370 370 368 367 366 365 363 363 365 367 366 365 365 365 365 363 361 361 361 359 360 361 360 359 358 356
342 344 347 350 352 355 359 360 361 362 363 363 362 355 353 355 356 356 358 357 358 359 359 359 361 362 364 365 366 368 369 370 370 371 371 371 371 371 370 369 369 368 366 365 364 365 366 367 366 365 365 366 365 364 362 361 360 360 361 360 361 359 358
338 342 346 350 353 356 358 359 360 361 362 360 359 356 353 355 355 355 358 357 357 358 359 359 361 362 365 366 366 368 370 370 370 371 371 371 371 370 370 370 370 369 367 366 366 365 365 366 366 365 365 366 366 367 364 361 360 360 360 360 360 359 358
336 341 346 351 354 355 357 359 360 363 363 360 355 353 351 354 356 356 357 357 357 359 359 360 360 362 365 366 366 369 371 370 371 371 371 372 371 370 371 370 370 370 368 367 366 365 364 365 366 366 366 365 365 366 365 363 361 360 360 359 359 358 358
335 338 345 351 354 355 357 359 361 362 361 358 354 350 349 353 355 355 357 358 358 358 360 360 361 364 367 366 367 370 371 371 371 371 371 372 371 371 371 371 370 370 370 367 366 364 363 364 365 366 366 365 365 365 365 364 362 362 361 360 360 358 358
335 339 345 351 355 356 357 358 360 360 358 356 353 350 349 353 356 357 359 358 359 359 359 360 362 364 367 367 367 370 371 371 371 371 371 372 372 371 370 370 369 370 370 368 366 364 364 364 364 364 365 366 364 364 365 365 364 364 363 362 361 360 358
334 338 343 350 355 356 356 358 360 359 359 356 351 349 350 355 357 360 362 359 360 360 359 360 362 365 367 367 368 369 372 371 371 371 370 370 371 371 370 370 369 369 369 368 366 365 365 365 365 363 364 365 365 364 365 365 364 364 364 362 362 361 359
331 334 339 348 356 356 356 357 358 359 358 355 351 350 353 355 359 363 363 361 361 359 359 361 364 366 367 368 368 370 371 371 371 371 369 369 371 370 369 369 369 369 369 368 366 366 366 366 366 365 364 364 365 364 365 365 365 364 363 363 362 362 361
329 332 338 349 356 356 357 358 359 360 358 353 353 354 353 356 364 365 364 362 361 360 360 363 364 367 369 368 368 370 372 371 370 370 367 369 371 370 370 370 369 368 370 369 367 367 367 368 367 367 366 364 365 364 365 366 367 366 364 364 362 361 361
327 331 338 350 357 358 359 360 360 361 360 355 354 354 354 357 364 367 365 363 362 361 363 365 367 369 369 369 369 371 372 371 370 369 367 368 370 370 370 369 369 369 369 369 368 367 367 368 367 366 367 366 366 365 365 365 367 367 365 364 363 363 362
328 332 340 351 357 357 360 361 361 365 367 360 354 354 356 358 361 364 366 364 362 363 364 367 370 370 370 370 370 371 372 371 370 368 366 368 369 370 370 370 369 369 369 370 368 367 367 368 367 366 366 366 366 366 366 364 365 365 366 366 365 364 363
327 332 341 351 355 356 360 362 363 367 369 366 362 360 357 357 361 364 365 364 363 363 364 370 371 371 371 371 370 371 371 370 369 367 366 366 369 370 369 369 369 369 369 369 368 367 368 368 366 366 365 364 365 365 365 364 365 365 366 366 365 364 364
326 333 344 350 352 355 358 360 362 365 365 367 369 369 365 361 362 364 366 365 363 363 367 372 372 372 373 371 370 371 372 370 368 367 366 366 367 367 369 369 369 368 369 368 367 367 367 368 367 365 365 365 366 366 365 366 366 367 368 367 366 364 363
328 336 346 349 349 352 356 357 360 361 362 363 366 369 369 369 367 365 366 365 363 366 371 374 373 373 372 372 371 372 371 370 368 367 366 366 365 367 369 369 368 367 369 369 367 367 368 367 366 365 366 366 365 366 366 366 366 366 368 368 367 365 363
329 336 344 347 347 349 352 354 356 358 360 361 362 365 366 368 370 370 368 366 366 369 373 373 372 373 373 372 371 370 369 370 367 365 366 366 365 365 365 364 364 366 367 368 368 368 367 368 367 366 366 367 366 366 366 367 367 368 367 368 369 368 365
330 334 340 344 346 347 349 351 353 356 358 359 361 362 363 364 366 368 368 368 368 370 372 371 372 371 371 371 369 368 368 369 367 366 366 367 367 366 363 359 359 360 364 366 367 367 367 366 366 366 366 366 368 367 367 367 367 367 368 368 369 368 366
329 332 336 340 344 345 347 349 351 354 355 357 359 360 361 362 363 364 366 367 368 368 370 370 370 370 370 369 368 368 369 369 369 368 367 368 369 369 366 362 359 357 357 359 362 364 365 365 366 366 367 368 369 368 368 367 368 367 368 367 368 368 367

ECMWFFLT1_925_thetae_066.txt.gz
Theta_e
355 355 355 355 356 355 354 356 356 354 354 357 359 357 356 356 357 358 359 361 363 363 363 361 361 360 356 354 353 351 347 344 344 343 343 342 342 345 350 350 349 350 351 353 354 353 351 350 351 352 354 356 357 358 357 358 359 359 359 359 358 357 357
354 352 353 356 357 356 356 356 357 356 356 358 359 358 357 356 358 358 359 362 363 363 364 362 362 361 358 355 353 351 349 346 345 344 344 344 342 343 349 352 351 350 349 349 351 352 351 350 350 350 352 355 357 359 359 359 359 360 360 359 359 359 359
351 351 352 356 357 357 357 356 356 356 355 355 355 357 357 357 357 359 360 363 364 364 365 364 363 364 361 357 355 353 350 349 347 345 345 345 345 344 346 350 351 351 348 345 345 349 351 352 351 351 351 354 357 360 359 360 360 361 360 359 359 359 361
352 352 353 355 356 355 356 356 357 357 356 354 354 357 358 358 358 359 360 362 365 364 365 365 364 365 363 360 358 357 354 352 350 347 346 346 345 344 344 347 350 351 349 346 344 345 349 352 353 352 352 353 356 358 358 358 360 360 360 359 359 359 359
352 351 352 354 354 355 354 355 357 360 359 356 355 357 359 358 357 358 359 362 364 365 365 365 364 366 365 363 361 360 358 355 353 350 348 347 347 345 343 346 348 349 350 349 346 343 345 350 354 353 353 353 354 355 356 357 358 360 360 359 359 359 359
351 350 353 355 355 355 355 354 358 361 359 357 356 359 359 359 358 359 359 362 365 365 365 366 365 364 365 364 363 363 360 358 355 353 351 349 349 347 345 345 348 348 349 349 349 346 343 346 352 354 355 355 355 354 355 356 358 359 359 359 360 359 359
351 350 353 356 354 353 354 356 359 358 357 357 359 360 359 358 358 359 360 362 363 365 366 366 365 364 366 366 364 363 361 360 358 355 355 353 351 350 350 348 347 348 348 348 350 349 345 344 348 353 356 356 357 356 354 356 357 358 358 358 359 360 359
350 351 352 355 353 353 355 356 356 357 358 360 359 359 358 356 357 357 357 361 363 365 365 366 366 365 366 366 363 363 363 362 360 357 357 356 353 352 352 351 349 348 349 349 349 350 350 346 346 350 354 357 358 357 355 354 355 356 358 359 359 359 359
347 349 350 353 353 352 353 354 355 358 359 359 358 358 357 356 357 356 357 359 362 365 365 365 367 366 366 366 363 362 364 363 362 360 359 359 357 354 353 353 351 349 349 350 349 349 350 350 348 349 351 355 358 358 356 354 354 356 357 358 359 360 359
343 348 350 353 352 353 353 354 356 359 360 360 359 358 359 358 357 358 358 360 362 365 366 367 366 367 367 365 363 363 364 364 363 361 361 360 359 356 354 354 353 350 350 350 351 350 350 351 352 351 351 353 357 358 356 354 354 355 356 357 358 359 360
346 353 353 353 354 354 353 352 357 361 361 362 361 360 360 359 360 359 359 359 360 362 365 367 366 367 368 365 363 363 364 363 361 361 361 360 358 356 354 354 354 353 351 351 351 350 350 351 353 354 353 353 355 357 357 354 354 355 356 357 357 358 359
347 355 356 353 355 354 354 357 361 363 363 361 360 360 361 360 360 359 358 359 359 361 363 366 367 366 367 366 363 362 363 362 361 361 361 359 357 356 353 353 353 355 354 353 352 351 350 351 353 354 357 356 355 356 357 356 355 355 356 357 357 357 358
351 353 355 355 356 355 358 362 363 364 366 362 360 359 360 360 360 358 359 359 360 359 360 364 367 365 365 364 363 362 362 361 361 361 361 359 357 355 355 353 352 355 356 355 355 352 350 352 354 355 357 358 357 357 356 356 356 357 356 358 357 357 357
347 346 350 355 357 361 364 366 366 368 366 362 359 358 358 360 359 358 359 358 359 358 359 362 365 365 364 365 363 362 362 361 360 360 361 360 358 355 355 354 353 353 355 356 356 354 350 351 355 356 358 360 360 359 358 358 358 359 359 359 358 357 357
341 342 345 352 360 368 370 370 370 370 367 362 359 357 358 359 360 360 359 357 357 358 358 361 363 363 363 364 363 362 362 361 361 362 361 361 358 357 356 355 353 353 355 356 356 355 353 350 354 357 358 360 361 361 360 359 360 360 360 359 358 357 356
343 342 342 348 356 363 365 368 370 372 369 366 359 356 359 361 361 362 360 360 359 358 358 360 362 362 363 363 364 363 362 362 362 362 362 361 359 358 357 356 354 354 354 357 357 356 356 352 351 356 359 360 362 363 362 360 360 361 360 359 358 355 355
344 343 344 348 352 355 355 359 364 370 370 367 363 359 359 361 361 361 361 361 360 358 357 358 361 361 361 363 364 363 362 363 363 362 361 362 361 360 358 357 357 356 355 356 357 358 357 355 352 353 357 359 361 362 362 361 361 362 360 359 358 356 353
342 344 344 346 350 352 351 351 357 362 360 360 362 360 359 361 362 360 360 362 360 359 356 356 359 360 360 363 364 364 363 364 363 362 362 362 362 361 359 357 357 357 355 354 356 357 357 356 355 352 355 359 360 362 363 363 361 361 361 360 359 357 354
343 346 346 346 349 348 347 350 355 358 358 357 357 355 355 357 358 359 358 358 359 360 358 356 358 359 359 363 364 364 364 364 364 363 361 362 363 362 361 359 358 358 357 354 355 356 357 357 356 354 353 356 359 360 361 363 362 360 361 361 359 358 356
344 345 349 350 349 348 347 350 355 358 359 358 355 353 354 356 355 356 353 356 359 360 359 357 359 360 361 362 365 366 365 364 364 364 363 363 363 363 362 360 358 358 357 356 355 356 358 358 357 356 354 354 356 359 360 361 362 361 361 360 360 359 356
344 344 347 349 350 352 353 354 355 356 356 357 356 355 352 351 352 351 354 356 356 359 361 361 360 362 361 362 365 367 366 366 365 365 364 363 363 364 363 360 359 359 358 357 355 356 358 358 358 358 356 354 355 357 359 360 361 362 361 360 360 360 358
341 342 343 345 347 352 354 354 354 355 357 358 359 358 356 352 350 350 353 357 357 357 359 360 361 363 362 362 366 368 367 367 366 365 366 364 364 365 364 362 361 359 358 358 356 357 358 360 359 359 358 357 356 356 357 358 359 361 361 360 360 359 359
337 339 340 342 344 348 351 352 353 354 356 357 358 358 356 354 350 350 352 353 355 355 357 357 360 364 364 363 366 369 368 368 367 367 366 366 365 365 365 364 362 360 360 358 357 358 359 360 361 361 360 360 358 357 358 357 358 359 359 360 359 359 359
333 336 339 341 342 345 348 352 354 354 355 358 359 358 355 352 349 350 351 352 353 354 355 356 359 364 365 365 366 368 368 368 368 368 368 367 367 366 366 365 364 362 361 360 359 360 360 362 363 363 362 362 360 360 358 357 359 359 358 359 359 359 359
332 333 336 338 341 344 347 351 355 357 356 358 359 360 358 355 352 350 352 353 352 353 354 356 359 364 367 366 366 367 370 369 369 369 369 368 367 367 367 366 365 363 362 360 361 362 362 363 364 365 364 362 362 362 361 359 359 358 358 360 359 360 359
329 331 334 336 338 341 345 350 355 357 357 357 358 359 360 360 354 350 352 352 353 352 351 354 358 364 367 366 366 368 370 370 370 370 369 369 369 369 370 369 367 365 363 362 361 361 363 365 365 366 365 363 362 363 364 362 361 359 359 359 359 360 360
328 330 333 334 336 339 342 347 353 357 355 356 358 359 361 360 356 353 355 354 353 354 353 354 358 363 366 366 367 369 371 371 371 371 371 371 371 371 371 371 369 367 365 363 362 362 362 364 365 366 366 364 364 363 364 364 363 361 360 360 360 359 360
327 327 329 332 334 336 340 345 351 356 357 356 358 359 360 359 357 357 358 355 354 356 356 357 360 363 366 367 367 369 372 372 371 372 373 373 373 372 371 371 370 369 367 366 364 363 363 364 364 364 365 366 365 364 364 365 365 364 363 361 360 359 359
325 325 327 330 332 334 338 343 349 356 357 358 359 359 360 360 357 356 358 358 357 355 357 359 362 364 366 367 368 369 372 372 372 373 372 373 373 372 371 372 371 370 370 368 366 364 364 364 364 363 364 365 365 364 364 365 366 365 364 363 362 360 359
324 325 326 328 330 333 336 342 351 358 359 358 361 362 364 362 356 356 361 364 361 358 359 361 363 365 367 368 368 370 371 373 373 372 371 372 373 372 372 372 371 371 371 369 367 366 365 365 365 364 363 364 365 365 364 365 365 365 364 364 363 361 360
324 324 325 326 329 332 336 345 354 358 360 361 365 369 371 367 360 360 365 366 363 360 360 364 365 366 368 369 369 371 373 374 373 372 371 371 373 373 372 372 371 372 372 371 368 368 367 367 366 365 365 364 364 364 364 365 365 366 365 364 364 363 362
324 324 324 326 329 332 338 348 356 358 362 366 368 371 374 370 361 363 368 366 363 362 363 366 368 369 370 370 370 371 373 374 373 372 371 371 371 372 373 372 371 371 372 371 369 368 368 367 366 366 365 365 365 365 364 364 365 367 367 366 364 364 362
324 324 325 326 329 333 341 350 356 360 364 367 368 371 375 373 365 364 369 367 363 364 366 367 368 369 370 371 370 371 372 373 372 371 371 370 371 372 372 372 371 371 371 371 370 368 368 368 368 367 367 366 365 364 365 364 365 366 367 367 365 365 364
324 325 326 327 329 335 344 351 356 359 362 365 367 370 373 374 370 367 369 367 365 366 369 370 369 370 371 371 370 370 372 373 372 370 370 370 370 371 372 371 371 370 371 371 370 369 368 367 367 368 368 367 366 365 365 365 365 366 367 367 366 366 365
326 326 326 327 330 336 344 349 353 357 360 362 364 368 370 372 372 369 367 364 363 368 372 370 369 371 372 371 371 371 372 372 371 370 370 369 369 370 370 370 371 370 370 370 370 368 367 366 367 367 367 367 366 366 365 366 365 365 366 367 367 366 365
326 326 326 328 331 336 343 346 349 355 359 360 363 366 368 370 371 371 371 367 364 369 373 372 371 373 373 371 372 371 372 372 372 370 369 368 368 367 366 365 367 369 370 370 370 369 367 366 366 367 366 366 365 365 365 365 365 364 365 366 367 366 365
326 327 328 329 332 336 341 343 345 350 357 360 361 361 364 367 368 368 370 369 368 371 373 373 372 373 373 372 372 372 372 372 371 369 369 367 366 364 361 360 361 365 368 370 369 368 367 366 366 366 365 364 364 364 364 364 366 365 365 366 367 367 367
326 327 329 330 332 336 339 339 340 345 353 358 357 356 359 364 365 363 365 367 370 373 375 374 374 373 372 372 371 371 371 372 370 369 370 369 366 363 361 360 358 359 362 365 367 367 366 366 366 366 365 365 367 367 366 366 367 367 366 366 367 367 367

ECMWFFLT1_925_thetae_069.txt.gz
Theta_e
353 354 353 356 357 356 356 354 352 351 352 352 354 353 355 356 355 356 357 356 356 355 355 356 356 353 349 349 348 345 345 344 345 349 350 346 343 342 340 342 344 345 348 352 353 353 353 352 353 355 356 354 354 356 357 357 356 356 355 354 355 356 355
353 352 352 355 357 357 355 354 352 351 352 352 354 354 355 356 356 357 358 357 356 356 355 356 356 354 350 349 348 346 345 345 345 346 348 346 344 341 339 340 342 344 345 346 349 352 353 352 353 353 354 354 353 353 356 357 356 356 356 354 354 355 356
353 353 353 355 357 357 356 354 352 352 352 353 355 354 354 356 355 357 358 359 358 357 356 356 356 356 353 350 349 348 345 345 346 345 345 344 343 343 341 338 340 342 344 345 346 347 350 351 352 354 353 353 353 353 354 356 357 356 357 356 353 353 354
355 355 355 356 357 356 354 354 352 352 353 354 355 355 355 355 356 357 358 359 359 358 358 356 357 357 354 351 350 349 347 345 344 344 343 342 341 344 345 343 341 341 343 347 347 345 346 347 348 351 353 353 353 353 353 355 357 357 357 357 356 354 353
356 355 355 356 357 356 355 353 353 353 353 355 355 356 356 355 356 357 359 360 360 359 359 357 356 356 356 354 351 350 350 346 345 343 343 341 340 342 345 346 345 343 342 346 349 349 347 345 344 348 352 353 352 352 354 356 358 358 356 358 359 357 355
356 355 356 356 355 355 355 353 354 353 353 353 354 355 355 356 356 356 358 360 360 360 361 359 358 357 357 355 353 351 351 348 346 344 343 341 340 341 343 346 346 346 345 345 348 350 349 348 346 346 350 353 352 353 354 356 357 358 357 357 358 357 357
355 355 356 356 355 356 355 355 354 354 355 354 354 356 356 356 357 357 358 360 360 361 361 361 360 359 359 357 355 352 351 350 348 345 344 342 342 341 341 342 345 347 347 347 347 347 349 350 349 348 349 351 353 353 355 356 356 357 357 357 357 357 357
353 354 354 356 355 355 356 355 355 355 354 355 355 356 356 357 357 358 358 360 361 362 361 361 361 360 360 359 357 355 352 351 349 347 345 343 342 342 340 341 343 344 347 349 348 347 345 346 348 351 350 349 352 354 354 357 356 355 357 358 357 357 356
353 353 353 354 355 355 355 355 355 355 354 354 354 355 356 356 357 357 358 360 361 362 362 362 362 361 361 361 360 358 355 352 351 348 347 344 343 342 341 340 340 342 345 346 348 348 347 343 344 350 353 351 350 352 353 356 355 354 355 356 357 357 356
353 353 353 353 354 355 355 355 354 356 354 355 355 357 356 357 357 357 357 359 361 363 362 362 363 362 363 362 362 360 358 356 354 351 349 347 344 343 343 342 341 341 343 344 345 348 349 347 343 347 352 353 352 352 353 354 355 354 355 355 356 356 356
352 351 353 352 353 355 354 355 357 357 355 355 357 359 358 357 358 358 357 359 361 362 363 363 363 363 362 363 363 362 361 358 357 354 351 350 347 345 345 343 343 342 342 344 345 346 348 349 346 345 349 353 354 354 352 353 354 354 355 356 356 356 356
351 351 353 353 354 356 356 356 359 359 357 356 357 359 359 358 358 358 357 359 361 362 363 364 364 364 363 364 363 363 362 360 358 357 354 352 350 349 347 346 346 345 344 344 346 346 347 349 349 347 346 349 353 355 355 354 355 354 355 355 356 356 356
352 350 354 354 353 355 358 359 360 360 357 356 357 358 358 358 358 358 358 358 359 361 362 363 364 364 364 364 364 364 363 362 360 358 356 354 353 351 350 349 349 348 347 346 346 348 347 348 349 349 347 347 350 354 355 356 356 355 354 355 355 356 356
354 351 353 356 355 355 358 359 360 361 359 357 357 357 357 357 357 357 358 358 358 359 360 362 363 364 365 365 364 365 364 363 361 359 357 356 354 353 352 351 350 350 350 348 347 347 348 348 349 350 349 349 348 350 355 356 357 356 354 354 355 356 356
351 351 353 353 354 359 363 361 359 360 359 357 357 357 356 357 357 356 357 357 358 359 360 362 362 363 365 366 365 365 364 362 362 361 359 357 355 355 354 352 351 350 351 350 349 348 348 348 349 350 350 351 350 349 352 355 357 357 355 354 355 355 356
350 350 351 351 351 356 366 371 368 366 363 358 357 358 357 357 357 357 358 357 358 359 359 361 363 363 365 366 365 365 363 362 362 361 360 359 356 356 355 355 353 351 351 351 350 348 348 348 349 351 351 353 353 352 352 353 355 356 356 355 354 355 355
348 350 351 352 352 353 358 362 367 373 371 360 357 358 358 357 358 358 357 359 358 359 359 359 361 363 363 365 365 365 364 363 362 361 360 360 359 357 357 355 354 352 352 353 352 350 349 349 349 351 351 352 355 355 355 355 355 355 356 356 355 354 355
345 346 350 353 354 355 355 356 360 367 367 359 356 359 359 359 359 358 358 359 359 359 359 359 360 361 362 364 364 365 364 362 362 361 360 360 359 358 357 355 353 352 351 352 354 352 352 351 350 351 351 352 354 356 357 356 355 356 355 355 355 355 356
340 341 343 346 349 354 356 357 359 359 356 354 354 357 358 360 360 359 358 359 359 358 359 359 358 359 361 362 363 365 365 363 361 361 360 360 359 358 356 356 354 353 352 353 355 355 354 353 351 351 353 354 354 356 358 358 358 357 357 357 356 356 356
335 337 338 339 341 347 350 351 353 354 352 352 351 352 355 358 359 359 359 359 359 358 358 358 357 357 357 357 358 361 363 363 361 361 361 360 360 359 357 356 355 354 353 352 354 355 355 355 353 351 353 355 356 356 358 359 358 358 359 358 357 356 356
333 333 335 335 336 340 343 344 347 350 352 353 353 350 351 355 357 356 356 358 358 358 358 357 356 356 356 356 356 358 361 364 362 361 361 360 360 360 359 357 356 355 354 353 354 356 355 355 355 353 353 355 357 358 358 360 359 359 359 359 359 357 358
331 330 331 333 333 335 338 341 343 346 349 351 355 354 353 354 355 355 355 358 357 358 358 357 356 356 355 355 356 356 360 363 362 362 362 361 362 361 360 358 357 356 356 355 354 356 357 356 356 356 355 355 357 358 358 359 360 359 359 358 359 359 359
329 328 328 330 332 333 335 337 339 341 344 347 353 355 355 355 355 354 355 356 356 357 357 357 356 356 355 355 354 355 360 364 364 362 362 362 361 362 361 360 358 357 357 356 355 356 357 357 357 357 356 355 356 357 358 359 359 359 360 360 359 360 360
327 327 327 328 330 331 333 335 336 338 341 346 351 355 356 357 358 356 355 355 355 355 356 357 357 356 356 355 354 355 359 363 365 362 362 363 362 362 362 361 360 359 357 357 357 355 356 357 358 357 357 355 355 356 358 359 360 360 360 359 359 360 360
325 326 326 327 328 330 331 333 335 337 340 344 348 352 355 356 357 358 355 354 354 355 356 356 357 356 356 356 355 355 358 363 365 363 363 363 362 362 362 363 361 360 358 358 357 356 356 357 357 357 357 356 355 355 355 357 359 359 359 359 360 360 360
324 325 326 327 327 328 330 331 334 336 338 341 344 348 352 355 357 358 358 356 354 354 355 356 356 356 356 356 356 356 358 363 366 364 364 364 363 362 362 363 362 361 359 358 357 357 357 356 357 357 357 357 357 356 355 355 355 356 359 358 360 360 360
324 325 325 326 326 328 329 330 333 334 336 339 342 346 352 357 357 357 359 359 357 354 354 354 355 355 356 356 356 357 359 363 366 365 364 364 363 363 363 363 363 362 361 359 358 357 357 357 358 358 358 358 358 358 358 356 355 355 356 357 358 359 359
323 324 325 325 326 327 328 330 332 333 335 338 342 348 354 357 359 359 359 360 359 358 355 353 354 356 356 357 357 358 360 364 366 365 365 364 365 364 363 364 363 363 362 360 359 357 358 358 358 359 359 359 359 359 360 359 357 356 356 356 357 358 359
323 324 325 325 325 326 328 330 331 333 335 338 343 348 354 356 359 359 360 361 362 362 359 354 352 354 356 357 357 359 362 366 366 367 366 365 365 365 365 365 364 364 362 362 360 358 358 359 360 361 361 362 362 361 361 360 361 359 357 357 357 357 358
323 324 325 325 325 327 328 330 331 332 335 339 344 350 354 358 362 364 366 368 368 366 362 356 351 352 354 355 356 358 363 366 368 367 366 366 366 366 366 365 365 365 364 363 361 360 358 359 361 362 362 363 363 363 362 362 361 361 360 359 358 357 358
323 324 325 325 326 327 328 329 331 332 335 340 347 352 355 360 364 368 370 371 373 371 367 358 352 352 352 354 358 360 362 366 369 369 368 368 367 367 367 367 366 367 366 364 363 361 359 360 361 362 363 363 364 365 364 363 363 362 361 362 360 359 358
323 324 325 326 326 327 328 330 331 332 336 341 347 351 355 360 363 366 368 370 372 373 370 361 355 353 353 354 358 363 366 368 369 370 369 369 369 368 368 368 368 368 367 366 364 362 361 360 360 361 362 363 364 365 365 364 364 363 363 362 363 362 360
323 324 325 325 326 327 329 330 331 334 337 342 346 350 353 358 361 363 367 368 370 372 372 364 356 357 358 358 359 362 367 369 370 371 370 370 370 370 369 369 369 369 368 367 366 364 362 362 361 361 361 362 362 364 365 365 364 364 364 363 364 364 363
323 324 325 326 326 328 330 331 332 335 338 341 344 345 350 356 360 363 366 366 367 370 372 365 358 358 360 362 363 365 368 369 370 371 370 370 371 371 371 370 370 370 369 369 368 366 364 363 362 361 361 361 361 362 364 365 365 365 365 364 364 364 364
323 323 324 326 327 328 330 331 333 336 338 339 340 343 348 356 359 361 362 363 363 366 371 368 361 361 362 363 365 367 368 369 370 370 371 370 370 371 372 372 371 371 369 369 369 368 367 364 364 362 362 361 360 361 362 363 363 364 365 364 363 364 363
322 323 325 326 326 326 328 330 333 335 336 336 337 340 345 352 357 357 359 361 361 364 370 370 366 363 365 366 366 368 368 370 370 370 371 370 370 371 371 370 370 371 370 370 370 369 368 366 365 363 362 362 360 360 360 361 362 363 363 363 364 363 363
322 323 325 326 326 324 325 329 332 334 335 334 335 336 338 345 353 357 357 359 360 362 368 371 368 365 366 368 367 368 369 370 370 370 370 370 370 369 367 365 366 368 370 370 370 370 369 368 366 365 363 363 361 361 359 359 360 361 362 363 364 364 363
321 323 325 326 326 323 324 328 331 332 332 333 333 333 334 339 347 351 352 354 358 361 365 371 371 368 368 369 368 368 368 370 371 371 370 371 370 368 364 362 362 363 364 367 369 370 370 368 366 365 364 363 362 362 361 361 361 361 361 362 363 364 364

ECMWFFLT1_925_thetae_072.txt.gz
Theta_e
356 354 353 353 353 352 352 352 350 350 350 350 350 349 349 348 348 346 348 350 349 350 351 351 352 351 350 352 352 350 349 348 347 346 346 346 344 344 345 344 346 348 350 352 351 351 354 355 355 354 354 355 355 353 353 354 355 355 355 355 355 355 355
356 354 353 352 353 353 352 351 350 351 350 350 351 350 350 350 349 348 348 349 349 350 351 351 352 351 350 351 351 350 348 347 346 345 346 345 343 345 346 345 344 345 347 349 349 350 352 354 355 355 355 355 354 353 354 355 354 353 354 354 355 355 355
355 354 352 352 353 352 353 352 350 351 350 351 351 351 351 350 351 350 349 350 350 350 351 351 351 352 350 350 350 349 348 346 345 345 346 344 343 345 347 346 346 344 345 347 348 350 351 352 353 353 354 354 354 353 355 356 355 354 355 354 354 355 355
354 354 351 352 353 352 353 352 350 351 351 351 351 352 352 351 351 352 350 350 350 350 351 351 351 352 350 350 350 349 347 346 345 345 346 344 342 344 346 345 345 344 344 346 348 349 349 351 351 352 352 353 354 353 353 355 356 356 355 354 354 354 355
353 353 351 352 353 352 353 352 351 350 350 351 352 351 353 353 352 353 352 352 351 351 351 352 352 352 351 350 350 349 348 345 344 344 346 346 343 343 344 344 343 344 344 345 347 349 349 350 351 352 351 352 353 353 352 353 355 356 356 355 354 352 353
353 351 351 352 353 353 352 352 352 350 350 351 352 352 353 353 353 354 354 353 352 352 352 352 353 353 352 350 349 349 348 346 344 344 345 347 346 344 344 343 342 342 343 344 345 347 349 350 351 352 352 352 353 353 352 352 353 354 356 356 355 353 351
352 351 352 351 353 354 353 353 352 351 350 350 351 352 353 353 354 354 354 354 353 353 353 353 353 353 353 352 350 349 348 347 345 344 344 346 347 346 344 342 341 341 342 343 343 344 346 346 347 350 352 352 352 353 353 353 352 352 354 355 356 355 353
352 351 351 351 353 353 353 353 352 351 351 350 351 353 353 353 354 354 355 355 354 354 353 353 353 354 354 353 351 349 348 347 346 344 344 344 346 347 345 343 340 338 339 340 340 341 340 339 339 343 347 349 350 351 352 353 352 352 352 355 356 356 355
353 352 350 351 353 353 353 352 352 352 351 350 351 352 353 354 354 355 355 356 356 355 355 354 354 354 354 354 352 351 349 348 347 345 344 344 344 345 345 344 342 339 339 338 339 339 338 336 336 339 343 344 345 347 350 353 352 351 352 354 356 357 356
353 352 352 353 352 353 354 352 352 352 351 351 351 352 353 354 354 354 355 356 357 356 356 355 355 354 355 354 354 352 351 349 348 346 345 344 344 343 343 343 343 343 342 341 341 341 339 338 339 342 344 344 343 344 347 351 352 352 352 352 354 355 355
355 354 354 354 353 355 355 353 354 352 351 352 352 352 353 353 354 355 355 356 357 357 357 357 356 355 355 355 354 353 352 351 350 348 347 345 344 343 342 342 342 342 344 343 344 343 342 341 342 345 347 347 346 345 345 349 350 351 352 352 353 354 353
356 356 356 355 355 355 355 355 355 353 353 352 351 353 354 354 354 354 355 356 357 358 358 358 357 357 356 356 355 354 353 352 351 350 348 347 345 343 342 341 341 340 342 343 345 345 344 344 344 346 347 348 349 348 347 347 349 350 352 353 354 354 354
355 353 354 355 355 357 357 357 356 353 352 352 352 353 353 354 355 354 355 356 357 358 358 358 359 358 358 357 356 356 355 353 352 351 350 349 347 345 343 342 341 340 340 341 343 344 345 346 346 345 345 346 347 348 349 349 349 350 351 353 354 355 354
355 352 352 352 352 356 358 360 363 360 353 351 352 352 353 354 354 354 355 355 357 358 358 359 359 359 359 359 358 358 357 356 354 352 351 350 348 347 345 343 342 341 340 340 340 342 343 345 346 346 345 344 343 345 347 350 350 350 350 352 353 355 354
348 348 349 349 349 351 353 354 359 360 356 354 353 353 353 354 354 354 355 355 356 358 359 359 360 359 360 360 359 359 359 358 357 355 354 352 350 349 347 345 343 342 341 340 340 340 341 342 343 345 346 346 344 344 346 350 351 351 350 350 351 353 354
339 340 342 344 344 346 348 349 350 352 352 352 354 355 354 354 356 355 355 355 356 358 359 360 360 360 360 360 361 360 360 360 360 358 357 355 354 352 349 347 346 343 342 342 341 340 341 342 342 344 345 347 346 345 346 349 351 351 351 350 350 351 353
334 335 336 338 339 340 342 345 347 350 350 349 349 352 355 355 356 356 356 356 356 357 360 360 361 361 361 361 361 361 361 361 361 360 360 358 357 355 353 351 349 346 345 344 343 342 342 342 343 344 345 346 347 346 347 348 350 350 350 350 350 351 352
332 333 334 334 336 337 338 340 344 347 349 349 349 349 351 354 355 356 356 357 356 357 359 360 361 361 362 362 362 362 362 362 362 362 361 360 359 357 355 354 352 350 348 347 346 345 344 344 344 344 345 346 347 347 347 348 348 349 350 350 350 352 353
329 330 332 334 334 334 335 336 339 342 344 347 349 349 349 350 353 355 356 356 357 357 358 359 361 361 362 363 363 363 363 363 363 362 361 361 360 359 357 356 354 352 351 349 348 347 347 346 346 345 345 346 347 348 348 348 348 348 349 349 350 352 354
327 328 330 332 333 334 334 334 336 338 339 340 343 347 350 349 349 354 356 356 356 357 357 358 359 360 361 362 363 364 364 364 363 363 362 362 361 360 359 357 355 354 353 351 350 349 349 348 347 347 346 346 347 349 349 349 348 348 348 349 349 351 353
326 326 327 328 330 332 333 333 334 335 336 337 339 342 348 352 350 351 354 356 357 357 357 357 358 359 360 361 362 363 363 363 363 362 362 362 361 361 359 358 357 355 354 353 352 350 350 350 349 348 347 347 347 348 349 350 349 350 349 349 349 350 352
325 325 326 326 327 328 330 330 331 333 334 336 338 339 345 351 353 351 352 353 355 357 357 357 357 358 359 360 360 361 362 362 362 362 362 362 361 361 360 359 358 357 355 354 353 352 351 351 350 350 348 348 348 348 349 350 350 351 351 350 350 350 352
324 324 325 326 326 327 328 329 330 332 334 335 337 338 341 345 348 350 351 352 352 354 355 356 357 357 358 359 359 360 361 361 360 361 362 362 361 360 360 359 359 358 356 355 353 353 352 351 352 351 350 349 348 348 349 350 350 351 352 352 351 352 353
324 325 325 325 326 326 327 328 329 331 333 334 336 337 339 341 344 347 350 352 352 352 354 354 355 356 357 358 358 358 359 359 359 359 361 362 361 361 360 359 359 358 357 356 355 353 352 352 352 352 352 351 350 350 350 350 351 352 352 352 352 353 354
324 324 324 325 326 326 327 327 329 331 332 333 334 336 338 340 343 346 350 353 353 353 353 353 354 356 357 357 357 357 358 358 358 358 360 361 361 361 360 360 359 359 357 356 355 354 353 352 352 353 353 353 352 351 351 352 352 352 353 353 353 354 355
323 324 324 325 325 326 326 327 328 330 331 332 334 336 338 340 343 347 351 354 356 355 353 353 354 356 357 356 357 356 356 357 357 357 359 361 361 361 361 360 360 359 358 357 356 355 354 353 353 353 353 354 353 353 352 352 353 354 354 354 354 355 356
322 323 324 324 325 326 326 327 328 329 330 332 334 336 337 340 343 347 350 353 356 357 357 356 354 354 355 356 356 356 356 356 355 357 358 360 361 362 361 361 360 359 358 358 356 355 355 354 354 354 354 354 355 354 354 353 353 354 355 356 356 356 357
321 322 323 324 324 325 326 327 328 329 330 332 334 335 337 340 344 348 350 353 356 359 361 362 360 357 354 354 355 356 356 356 355 356 357 359 361 362 361 361 361 360 359 359 357 356 356 355 355 354 355 355 355 355 355 354 354 354 355 356 356 357 357
321 322 323 323 324 325 326 327 328 329 330 332 334 336 338 341 345 348 350 353 356 359 362 365 366 365 361 357 355 355 355 356 356 355 356 359 360 362 362 362 361 361 360 359 358 357 356 356 355 355 355 355 355 356 356 355 355 355 354 355 356 357 357
320 321 323 323 323 325 326 326 328 329 331 333 335 337 339 341 343 346 347 350 353 357 360 363 366 367 367 365 361 357 355 355 356 356 356 358 360 362 362 362 361 361 361 360 359 358 357 356 356 355 355 355 355 356 356 356 356 355 355 354 354 355 357
320 321 322 322 323 324 325 326 328 329 331 333 336 337 338 339 341 343 345 346 349 354 358 362 365 367 367 366 365 362 357 355 355 355 356 357 360 362 362 362 362 361 361 361 360 359 358 357 356 356 356 356 356 356 356 357 357 356 355 355 354 354 354
319 321 322 321 322 324 325 325 326 329 331 334 336 336 336 336 338 340 342 344 348 353 358 361 363 363 363 364 365 364 360 356 354 355 356 357 360 362 362 363 362 362 361 361 360 360 359 358 357 356 356 356 356 356 357 357 357 357 357 356 356 355 354
319 321 321 321 321 324 325 324 324 328 331 333 334 334 334 334 335 336 338 341 346 352 356 358 360 361 360 361 363 364 362 357 354 356 357 358 361 362 363 363 362 362 362 361 361 360 360 358 357 357 356 357 357 357 358 358 358 358 358 358 358 357 356
320 321 320 320 321 323 325 324 323 327 330 331 331 332 332 332 333 334 335 338 344 349 353 356 358 359 359 360 362 364 362 356 354 356 358 360 362 363 364 364 363 363 363 362 362 361 360 359 359 357 356 357 357 358 358 359 359 359 359 359 359 359 359
320 320 320 320 320 322 325 324 323 326 329 329 328 329 330 331 331 331 333 337 341 344 346 348 352 357 359 360 362 364 362 357 355 356 359 362 363 363 364 364 364 363 363 363 363 362 361 360 360 359 358 357 357 358 359 359 360 360 359 359 359 359 359
320 320 319 319 320 322 325 325 323 326 328 328 326 327 329 329 329 330 332 334 336 337 338 342 347 354 359 360 362 364 363 358 355 357 360 362 364 365 365 365 365 364 364 364 363 363 363 362 361 360 359 358 358 358 358 359 359 360 360 361 360 360 360
320 319 319 319 320 322 325 325 324 325 328 327 326 327 328 328 328 329 330 330 331 333 335 338 344 351 357 358 360 363 364 359 356 358 360 363 365 366 365 364 365 365 365 365 364 364 363 363 362 362 360 360 359 358 357 358 358 359 361 361 361 361 362
320 320 319 319 320 323 325 325 324 325 327 326 325 326 326 327 327 327 328 328 329 331 334 337 342 349 355 356 357 360 363 362 358 359 362 364 365 366 365 363 363 363 364 365 366 366 365 365 364 363 362 361 360 359 359 358 358 358 360 360 362 362 363

ECMWFFLT1_925_thetae_075.txt.gz
Theta_e
356 355 354 352 352 352 350 350 348 348 347 346 345 343 343 344 345 347 348 349 349 349 349 350 350 350 350 349 349 349 349 348 348 346 345 346 346 348 349 349 349 348 349 350 350 350 347 347 351 354 353 353 354 355 354 353 353 354 355 356 356 355 355
357 356 354 352 352 351 351 350 348 348 348 347 347 344 343 343 344 346 347 349 349 349 350 349 350 350 350 350 349 349 349 348 348 346 346 346 347 347 348 348 347 347 348 349 349 348 347 347 350 353 354 353 353 354 354 353 352 353 355 356 355 354 354
357 356 355 353 352 352 351 350 349 349 348 348 348 346 344 344 343 345 347 348 349 349 350 349 350 350 350 350 349 349 349 348 348 347 346 346 346 346 346 347 347 346 346 348 349 348 346 347 349 352 354 354 354 353 354 353 352 351 354 355 355 355 354
357 356 355 354 354 352 351 350 349 350 348 348 349 347 346 344 344 345 347 348 348 348 350 350 350 350 350 350 349 349 349 348 348 347 346 346 345 346 346 346 346 346 346 347 348 347 346 347 348 351 353 353 353 354 353 354 352 352 353 354 354 354 354
358 357 356 355 354 353 351 350 349 350 348 349 349 348 348 346 345 344 345 348 348 348 348 349 350 350 350 350 350 349 349 349 347 346 346 347 347 347 346 345 346 345 345 345 345 346 346 347 347 349 352 353 353 353 354 354 353 353 354 355 354 354 354
357 357 356 355 353 352 352 350 350 350 349 349 349 349 348 347 346 345 345 347 348 348 349 349 350 350 350 349 349 350 349 349 348 347 346 347 347 347 346 345 345 344 344 344 344 344 344 346 347 348 350 351 352 353 353 353 353 353 354 355 355 354 355
356 357 356 354 353 352 351 350 350 350 349 350 349 349 349 348 347 346 346 346 347 348 348 348 349 350 350 350 349 349 349 349 349 347 347 347 347 346 345 345 345 342 343 344 344 344 343 345 346 348 348 349 350 351 351 352 352 353 353 354 355 356 355
354 356 356 354 352 351 351 351 350 350 350 350 349 350 350 349 349 348 347 347 347 348 348 348 349 350 350 349 349 349 348 348 348 347 346 346 347 346 344 344 343 343 344 345 345 344 344 343 345 347 348 348 349 349 349 351 351 352 352 352 354 354 355
353 354 355 354 352 351 351 350 350 350 350 350 350 350 350 350 349 349 349 348 347 348 348 348 348 349 350 350 349 349 349 348 348 347 346 346 345 346 345 344 343 343 345 346 346 346 344 343 344 346 348 348 348 349 349 350 350 352 353 352 352 353 353
355 353 352 351 350 351 351 350 350 350 349 349 350 350 350 350 351 350 350 349 349 349 348 348 348 349 350 349 349 349 348 348 348 347 346 345 345 346 346 344 343 343 344 345 345 344 343 343 344 345 347 348 348 349 349 349 350 351 351 352 352 352 352
357 357 357 355 354 354 352 351 351 351 350 349 349 350 350 350 351 350 351 350 350 350 349 349 349 349 350 350 350 349 349 349 348 347 346 345 344 344 345 345 344 344 344 343 343 343 343 344 345 346 347 347 348 347 347 346 348 349 350 349 350 352 352
348 351 356 360 361 361 359 358 354 350 350 350 349 350 350 351 351 351 352 351 351 351 351 350 350 350 351 351 351 351 350 349 348 347 347 346 344 344 344 344 344 344 345 343 343 342 341 343 344 345 345 345 344 343 340 340 343 345 345 345 348 351 352
338 340 343 347 351 355 360 366 362 355 351 349 350 350 350 351 351 351 352 352 352 353 352 351 351 351 352 352 352 352 350 350 349 348 347 347 346 344 343 343 343 344 345 345 344 343 342 341 341 341 342 342 340 337 335 336 340 343 342 343 345 349 352
334 334 336 337 340 343 349 354 359 357 352 349 349 349 350 351 351 352 353 352 353 354 353 353 353 352 352 352 353 353 352 351 350 349 348 348 346 345 344 343 343 342 343 343 344 344 343 342 341 339 340 339 338 336 334 335 340 344 344 343 345 347 350
331 331 333 333 334 337 339 342 346 350 351 351 351 350 349 351 351 352 353 353 353 354 354 354 354 353 353 353 352 353 353 352 351 350 349 349 348 347 345 344 343 342 342 342 342 343 344 343 343 342 341 341 340 339 338 338 339 342 345 346 346 347 348
329 330 331 331 332 333 334 336 338 341 345 348 351 352 351 350 352 352 352 353 353 354 355 355 354 354 355 354 353 354 353 353 353 352 351 350 349 348 347 346 345 343 341 342 341 341 341 342 343 344 344 343 343 342 341 341 341 340 342 344 347 348 348
329 328 329 330 331 331 331 332 334 336 339 341 344 349 351 352 353 352 353 353 353 355 355 356 356 356 355 355 354 354 354 354 354 353 352 351 350 349 349 347 346 344 343 342 341 341 340 340 341 342 343 344 344 344 344 343 342 341 340 341 344 347 349
328 328 328 328 330 330 330 330 332 334 336 337 340 344 347 350 353 353 353 353 353 354 355 356 357 357 357 356 356 355 355 355 354 354 354 353 352 351 350 349 348 347 346 344 342 342 341 340 339 340 340 342 343 343 344 344 342 342 342 341 341 343 346
326 327 328 328 328 329 329 329 331 332 334 335 337 339 343 348 351 352 353 354 354 354 355 356 357 357 357 358 357 357 356 356 356 355 355 355 354 352 351 351 350 348 347 346 345 343 341 341 341 340 340 340 341 342 343 343 343 342 342 342 342 342 344
325 327 328 328 328 329 329 329 330 331 332 334 336 338 340 345 349 350 351 352 354 354 354 354 354 355 356 358 358 358 358 357 358 357 357 357 355 355 354 352 352 351 349 348 347 345 344 343 342 341 340 340 340 340 341 342 342 342 342 342 342 343 344
323 325 326 326 328 329 329 328 329 330 331 332 334 336 338 340 344 347 350 351 352 353 354 353 353 353 355 356 358 358 359 358 358 358 358 358 357 357 356 355 354 353 352 351 350 348 346 345 344 343 342 341 341 341 341 341 341 342 342 342 343 343 345
323 323 323 324 325 327 327 327 327 328 330 332 333 335 337 339 340 343 347 350 351 351 352 352 353 353 353 356 358 360 359 359 360 359 359 359 359 358 358 358 357 355 354 354 352 351 349 348 346 346 344 343 343 342 342 342 342 342 342 343 343 344 345
323 322 323 324 325 325 326 326 327 328 329 331 332 334 335 337 339 342 345 349 351 351 351 351 352 353 354 356 359 361 360 360 360 360 360 359 360 360 359 359 358 357 357 356 354 353 352 351 349 348 347 346 346 345 344 344 344 344 343 343 344 345 346
322 322 323 323 324 325 325 326 327 328 329 330 331 333 334 336 339 341 345 349 351 353 353 352 352 352 354 356 358 360 360 361 361 360 361 361 361 360 360 360 360 359 358 357 356 355 354 353 352 350 349 349 347 347 346 346 346 345 345 344 345 346 347
321 321 322 323 323 324 325 326 327 328 329 329 331 332 334 336 339 341 345 348 350 352 354 355 354 354 354 354 357 358 359 360 361 361 361 361 362 361 361 361 360 360 359 358 358 357 356 354 353 352 351 350 349 349 348 347 347 347 346 346 346 346 347
321 320 321 322 322 324 325 325 326 327 328 329 331 332 334 336 338 341 344 346 349 352 354 355 357 357 356 354 355 356 358 358 359 360 360 360 361 361 362 361 361 360 360 359 358 357 357 355 354 353 352 351 351 350 349 349 348 348 347 347 347 347 347
320 320 320 321 322 323 324 325 326 326 327 329 330 332 335 336 338 340 342 345 347 350 351 352 353 357 359 356 352 353 355 357 357 358 359 359 359 360 361 361 361 360 360 359 359 358 357 356 355 354 353 352 352 351 351 350 350 349 349 349 348 347 348
319 320 320 320 321 322 323 324 325 325 326 328 330 332 334 336 337 339 340 341 343 345 345 346 349 353 357 357 354 354 354 354 355 356 356 357 358 358 359 360 360 360 360 359 359 358 357 356 356 355 354 353 352 352 352 351 351 351 351 350 349 348 348
319 319 320 320 320 321 322 324 325 325 325 326 329 332 334 335 336 336 338 339 339 340 341 344 347 351 355 359 362 361 358 357 357 355 355 356 357 357 358 359 359 360 360 359 359 359 357 357 356 355 355 354 353 352 353 352 352 352 352 350 351 350 350
319 319 319 320 320 320 321 323 325 325 324 325 328 331 333 334 334 335 335 336 336 337 339 342 346 350 354 358 362 363 362 361 361 358 356 355 355 356 357 358 359 360 360 359 359 358 357 357 356 355 354 354 353 353 353 352 353 352 352 352 351 351 351
318 318 319 320 320 319 319 321 324 325 324 325 327 329 329 330 331 333 333 334 334 335 337 340 345 349 353 356 358 359 360 360 361 361 359 357 355 355 356 357 359 360 359 360 359 358 358 357 356 355 355 354 354 354 353 353 353 353 353 352 352 353 352
317 318 319 320 320 319 319 320 323 325 325 325 327 328 327 327 329 330 331 332 331 332 335 340 344 348 350 353 355 356 357 358 359 359 360 359 357 355 355 357 358 359 359 360 360 358 359 358 357 356 355 354 354 354 353 353 353 353 354 353 353 354 353
317 318 319 320 320 319 319 320 322 325 325 325 326 327 327 326 327 328 329 329 329 331 334 339 342 343 344 347 349 351 353 356 358 359 360 360 358 355 355 355 357 358 360 359 359 359 359 358 357 356 356 355 355 355 354 354 354 354 354 354 354 354 354
317 318 318 320 320 319 318 320 322 324 325 325 325 326 326 326 326 327 328 327 328 330 331 334 336 338 340 342 345 348 351 355 358 359 360 361 358 356 355 355 357 358 359 359 360 360 359 358 358 357 357 356 355 356 355 354 354 354 354 355 354 354 355
317 318 318 319 320 319 319 320 322 324 325 325 325 326 326 325 325 326 326 327 327 328 328 330 332 335 337 340 343 348 352 355 357 359 359 360 359 357 356 356 356 358 358 359 360 359 359 360 359 358 358 357 356 356 355 355 355 355 355 355 355 355 355
316 317 317 319 320 319 318 319 322 324 325 325 325 325 325 325 325 325 326 326 327 327 327 328 330 332 336 340 343 348 352 355 355 356 358 360 359 357 356 356 356 357 358 359 359 359 360 359 359 359 359 358 358 357 356 357 357 357 356 355 355 355 355
315 316 317 318 319 319 318 319 322 324 325 325 325 325 324 324 324 324 325 326 326 327 328 328 329 332 336 339 343 346 350 352 353 355 357 359 359 357 356 356 357 357 358 359 359 360 360 360 360 360 359 359 359 358 358 358 358 357 356 356 356 355 355
315 316 317 318 319 319 318 319 322 325 324 324 325 324 323 323 323 324 324 325 326 327 329 329 330 332 334 337 341 345 348 350 352 354 356 359 359 358 356 357 358 358 359 359 360 360 360 360 360 360 360 359 359 358 358 358 358 357 356 356 356 356 356

ECMWFFLT1_925_thetae_078.txt.gz
Theta_e
352 350 350 350 350 350 350 350 349 346 344 344 344 345 345 346 346 347 348 348 349 349 349 350 350 350 350 350 350 349 349 348 346 346 346 345 345 345 346 347 348 348 348 348 348 348 348 348 348 349 349 350 350 351 353 353 354 352 353 354 354 355 354
352 351 351 349 350 351 349 349 349 347 345 344 343 344 344 345 346 346 347 348 349 349 349 349 349 350 350 350 349 349 349 348 347 346 346 346 346 345 345 346 347 348 348 348 347 348 348 348 348 348 349 351 351 352 353 353 354 353 352 353 353 354 354
353 352 351 350 350 350 350 349 349 348 346 344 344 343 344 344 345 346 346 347 348 349 349 349 349 350 350 349 349 349 349 349 348 347 346 346 346 345 345 345 347 347 347 348 348 348 348 347 348 347 348 350 351 352 352 352 354 354 353 352 352 353 354
354 354 351 351 351 350 350 349 348 349 347 345 345 344 343 344 345 345 346 347 348 348 348 348 349 349 349 349 349 349 349 349 349 347 346 346 345 345 345 344 345 347 347 348 347 347 347 347 348 347 347 348 350 353 353 352 353 354 354 353 352 352 353
353 355 353 353 352 350 350 349 349 349 347 347 345 344 343 343 344 345 345 347 347 348 348 348 348 349 349 349 349 349 349 348 349 348 347 346 346 346 345 344 345 346 347 347 347 347 346 346 348 348 347 346 347 351 352 353 353 353 354 354 353 353 353
349 353 355 354 352 351 350 349 349 348 348 348 346 345 344 343 343 344 345 346 347 347 348 348 348 349 349 349 349 349 349 348 348 348 347 347 346 346 345 344 344 345 346 346 347 347 346 345 346 348 347 346 346 348 350 352 353 353 353 354 354 353 353
346 350 354 354 352 352 350 349 349 348 348 348 346 346 345 343 343 343 345 346 346 347 347 348 348 348 349 349 349 349 348 348 348 348 347 347 347 346 346 344 344 344 346 346 346 346 346 346 345 346 347 347 346 347 348 350 352 353 353 353 353 353 353
343 348 353 354 353 352 350 350 349 349 349 348 347 347 346 344 343 343 344 345 346 347 347 348 348 348 349 349 349 349 349 348 348 348 347 347 347 347 346 345 344 344 345 345 344 344 345 345 345 345 345 345 346 346 347 348 350 351 351 352 352 352 352
339 344 350 354 354 353 352 350 349 349 349 348 347 348 347 345 344 343 344 344 345 347 347 347 348 348 349 349 349 349 349 349 349 348 348 347 346 346 346 345 344 344 344 343 343 344 345 344 344 344 344 344 345 345 346 348 348 349 350 350 351 351 351
336 337 342 348 353 356 353 350 350 349 349 349 348 348 347 347 345 344 344 344 345 346 346 347 347 348 349 349 349 349 349 349 349 348 348 347 346 346 345 344 343 344 344 344 345 346 345 345 343 343 343 344 344 344 345 347 347 347 348 349 350 351 351
333 333 335 337 342 350 352 352 353 350 349 349 348 348 348 348 347 345 344 344 344 346 346 347 347 348 348 348 349 349 348 349 348 348 348 347 347 346 345 344 344 344 345 345 346 346 345 344 343 343 343 344 344 344 344 345 347 347 346 346 347 349 350
331 331 333 333 334 338 341 346 349 349 349 349 348 349 348 348 348 347 346 345 344 345 346 346 346 347 348 348 349 349 349 349 348 348 348 347 347 346 346 345 344 344 344 344 345 345 344 344 343 343 344 344 345 344 343 344 346 346 346 345 345 346 347
330 330 331 331 332 333 334 337 339 342 346 348 349 349 348 349 349 348 347 347 345 346 346 346 347 347 348 348 349 349 348 348 348 348 348 347 347 346 346 345 345 344 344 344 344 344 344 343 343 343 344 345 345 345 344 344 345 346 346 346 345 345 344
329 329 329 330 330 331 332 334 335 337 339 342 347 348 348 349 349 349 349 348 347 347 346 346 347 347 348 348 348 348 348 349 348 347 348 347 347 346 346 345 345 344 344 344 344 344 343 343 343 343 344 344 344 344 344 345 346 346 346 346 345 343 340
328 328 328 329 330 330 330 331 332 334 336 337 340 344 347 349 349 349 350 349 349 348 347 348 347 347 348 347 348 349 348 348 348 348 348 347 347 347 346 346 345 344 344 343 343 343 343 343 343 343 343 343 343 342 343 345 346 345 345 345 344 341 337
327 328 327 328 328 328 329 330 330 332 333 335 336 339 342 346 349 350 349 349 350 349 349 349 348 348 348 348 348 349 349 349 349 348 348 348 347 347 346 346 345 344 344 343 343 343 343 343 343 343 343 342 342 342 342 342 343 342 342 341 340 339 337
326 327 327 327 327 327 327 328 329 330 332 333 335 337 338 341 345 350 351 350 350 350 350 350 350 349 349 348 349 349 349 350 349 349 349 348 348 348 347 347 346 345 344 343 342 342 342 343 343 343 343 343 342 342 342 341 341 340 339 338 338 338 338
324 325 326 326 326 327 327 326 328 329 330 332 334 335 336 338 341 345 348 351 351 351 351 351 351 351 350 350 350 350 350 350 350 350 350 349 349 348 348 347 346 346 345 344 343 342 342 342 342 342 343 343 343 343 342 342 341 340 339 339 338 338 339
323 323 324 325 325 326 326 326 328 329 329 331 333 334 335 337 338 340 343 348 351 352 352 352 352 352 352 351 351 351 351 351 351 351 351 351 350 350 349 348 347 347 346 345 344 343 342 342 341 341 341 341 342 342 342 342 341 340 340 340 339 339 340
321 322 323 323 324 325 325 326 327 328 328 330 332 333 334 335 337 338 342 346 349 351 353 353 353 353 353 353 352 352 352 352 352 352 352 352 351 351 350 349 348 348 347 346 345 344 343 342 341 341 341 340 340 341 340 341 340 339 340 339 339 340 340
321 321 321 322 323 324 325 326 326 327 328 329 330 331 333 335 336 338 342 346 348 350 351 353 354 354 354 354 353 353 353 353 352 352 352 353 352 352 351 351 350 349 349 348 347 346 345 344 343 342 341 341 340 340 339 340 339 339 339 339 339 339 340
321 320 320 321 322 323 324 325 325 326 328 328 329 330 332 334 335 337 342 345 347 349 350 350 351 353 354 355 354 354 353 353 352 353 353 353 353 352 352 352 351 351 350 349 348 348 347 345 345 344 343 342 341 340 340 340 340 340 340 339 339 339 340
321 320 321 321 322 322 323 324 325 326 327 327 328 330 331 332 334 337 341 344 346 348 350 349 349 350 350 352 353 354 353 353 353 353 354 354 354 354 353 353 353 352 351 351 350 349 349 348 347 346 345 344 343 342 342 342 342 342 341 340 340 339 340
320 321 321 321 321 322 323 323 324 326 326 326 327 329 330 332 334 337 341 344 345 346 348 350 349 349 349 349 351 353 353 354 354 354 355 355 355 355 355 355 354 354 353 353 352 351 350 350 349 348 347 346 345 344 344 344 345 344 343 342 341 340 340
319 320 320 321 321 322 322 322 323 325 325 326 326 327 330 332 334 336 340 342 343 345 347 347 346 346 347 348 349 351 353 354 356 356 356 357 357 356 356 356 356 356 355 354 354 353 353 352 351 350 349 349 348 347 347 347 347 347 346 345 343 342 341
318 319 319 320 320 322 322 321 322 324 324 325 325 326 328 332 334 336 337 339 341 343 344 343 343 344 345 346 347 350 352 355 357 358 358 358 357 357 358 357 357 357 357 357 356 355 355 354 354 353 352 352 351 350 349 349 349 349 348 348 346 344 343
317 318 318 319 319 321 321 321 321 322 323 324 324 325 327 331 333 334 335 336 338 340 339 339 341 344 346 347 347 348 350 352 354 357 359 359 358 357 357 358 358 358 358 358 357 357 357 356 356 355 354 354 353 352 352 351 351 351 351 350 349 347 345
317 317 317 318 318 319 321 321 321 321 322 323 324 324 327 329 330 330 332 333 334 335 335 335 338 342 346 348 348 349 351 350 350 352 355 357 357 357 357 358 358 358 358 359 358 358 358 358 357 356 356 356 355 354 354 353 353 352 352 352 351 349 347
316 316 317 318 318 319 320 321 321 321 321 322 323 324 326 328 328 328 330 331 331 332 332 332 335 340 345 348 350 351 352 351 350 351 352 354 354 355 356 358 358 359 359 360 359 359 359 358 358 357 357 356 356 355 355 354 354 353 353 353 352 351 349
316 316 317 317 318 318 319 320 321 321 321 321 322 324 325 326 327 327 328 329 328 329 329 330 332 337 343 348 350 350 351 352 353 354 355 356 355 354 354 355 356 358 360 360 360 359 359 359 359 358 357 357 356 356 356 355 354 354 353 353 353 352 351
315 316 316 316 317 318 319 320 320 320 320 321 322 323 324 325 326 326 327 327 327 327 328 328 331 335 340 344 345 345 347 349 351 352 353 354 354 355 354 352 353 355 358 359 359 359 359 359 359 358 358 358 357 357 356 356 355 354 354 353 353 352 352
314 315 316 316 316 316 317 318 319 319 320 321 322 323 323 324 325 326 326 326 326 327 327 328 329 332 335 338 340 340 341 343 345 347 349 351 352 355 356 354 351 351 353 357 358 359 359 359 359 358 358 358 357 357 357 356 355 355 354 354 353 353 352
313 314 315 315 315 316 316 317 318 319 319 320 321 323 323 323 324 325 325 325 326 326 327 328 328 329 331 334 336 337 338 340 343 345 348 351 353 355 357 356 353 350 350 353 356 358 359 358 358 358 358 357 357 357 357 356 356 355 355 354 353 353 353
312 313 314 314 314 315 315 316 317 319 319 320 320 322 323 323 324 324 324 324 325 326 326 327 328 329 330 331 333 335 338 340 344 346 349 352 353 355 357 357 354 351 350 352 355 358 358 358 358 358 358 357 358 357 357 356 356 355 355 354 354 353 353
312 312 313 313 313 314 314 315 317 318 319 320 319 321 323 324 324 323 323 323 324 325 326 327 328 329 330 331 333 335 338 340 344 347 350 351 353 354 355 356 356 354 353 354 356 357 357 358 358 358 358 358 357 357 357 356 356 356 356 355 355 355 354
311 312 312 312 312 313 313 314 316 317 319 319 319 321 323 324 323 323 322 323 324 324 325 326 327 329 330 332 333 336 338 341 343 345 347 349 350 351 353 354 356 357 357 357 357 357 357 357 358 358 358 358 358 357 357 357 357 357 356 356 356 355 355
310 311 311 311 311 312 313 314 315 317 318 319 319 321 323 324 323 322 322 322 323 323 324 325 326 328 331 332 334 336 337 339 341 344 346 347 348 350 352 354 355 357 357 358 357 357 357 356 357 357 358 358 358 358 357 357 357 357 356 356 355 355 354
310 310 310 310 311 312 313 315 316 318 319 319 319 321 323 324 323 321 321 321 322 322 322 324 325 328 330 332 334 336 337 339 341 344 346 347 347 349 350 352 353 355 357 358 357 357 356 356 357 357 357 357 358 358 357 358 357 357 357 356 356 356 355

ECMWFFLT1_925_thetae_084.txt.gz
Theta_e
351 354 354 354 354 353 353 355 355 354 353 354 354 354 354 354 355 356 359 361 363 363 363 362 361 360 360 359 358 357 356 356 356 356 356 355 353 353 353 353 353 354 354 354 355 356 357 358 358 358 358 358 358 360 361 361 361 362 363 363 362 362 362
350 352 353 353 354 354 355 356 355 354 354 353 354 354 355 355 355 357 359 361 362 363 363 363 361 361 360 359 359 358 357 356 356 356 356 355 355 354 354 353 353 353 354 353 353 356 358 358 358 357 358 358 357 358 360 360 360 360 361 362 361 362 363
348 349 351 352 354 354 355 357 356 355 354 354 354 355 355 355 355 357 359 361 362 363 363 362 361 361 360 360 359 358 358 356 356 356 355 354 354 354 353 354 354 353 353 353 353 355 356 357 357 357 356 356 356 357 358 358 358 359 360 361 361 361 361
347 348 348 349 352 353 355 357 357 356 355 354 355 355 355 355 355 357 358 360 361 362 362 362 361 361 360 360 360 359 358 357 355 355 354 353 354 354 353 353 354 352 351 352 352 352 353 354 356 357 357 356 355 356 357 357 357 358 359 360 359 359 360
346 347 347 348 350 352 354 357 357 357 355 354 354 355 355 355 355 357 358 358 359 360 361 361 360 360 360 360 359 358 358 357 356 355 354 353 353 354 353 353 353 352 350 352 352 353 355 355 354 355 356 357 356 355 356 357 356 356 358 359 358 358 358
345 346 347 349 349 350 352 355 356 356 356 355 354 354 355 355 355 356 357 357 357 358 359 359 359 359 360 359 358 358 358 358 357 355 354 355 353 354 354 353 353 351 350 351 351 353 356 355 353 353 355 354 353 353 354 355 355 355 357 358 358 358 356
344 345 346 348 350 349 351 354 356 355 356 355 354 353 354 354 354 355 355 356 356 356 358 358 358 359 359 359 358 358 359 358 358 356 355 355 354 354 354 353 353 351 350 350 351 351 354 354 353 353 354 353 351 352 352 354 355 354 356 358 358 359 358
341 343 344 346 347 347 350 354 355 355 355 355 354 354 354 354 354 354 354 355 355 355 356 356 357 357 359 359 359 359 359 358 358 358 356 355 354 354 354 353 353 353 351 351 351 352 352 352 352 353 353 352 352 353 353 355 356 354 354 356 357 358 358
338 340 341 342 343 344 347 350 353 354 355 355 355 354 354 353 353 354 354 354 354 354 355 355 355 357 358 359 359 359 359 358 357 358 357 355 354 353 353 352 353 353 353 351 350 351 351 350 350 352 355 354 353 355 355 355 356 354 353 355 357 358 357
335 337 338 338 340 342 345 345 346 349 352 355 356 355 354 354 353 353 353 353 353 354 354 354 354 355 357 359 359 358 358 358 357 357 357 355 353 353 351 350 351 353 353 351 349 349 350 351 349 351 355 356 354 355 356 355 356 355 353 355 357 357 357
332 334 335 336 337 339 340 342 343 344 346 350 353 354 354 354 353 353 353 352 353 353 353 354 354 354 356 358 358 358 357 358 357 356 356 354 353 352 351 349 348 350 352 352 349 347 348 351 351 350 354 357 355 354 356 356 356 356 354 353 355 356 355
329 331 332 332 334 334 336 338 339 341 343 345 349 352 353 353 353 352 352 352 353 353 353 354 354 354 355 356 358 357 357 357 357 356 356 355 353 352 352 350 348 348 350 351 350 347 347 350 352 351 353 356 354 353 355 356 355 357 356 353 353 354 354
328 328 329 330 331 331 333 335 336 338 340 342 345 348 351 353 353 353 353 352 352 352 352 352 353 353 354 355 357 356 357 357 357 356 355 355 355 353 352 351 350 348 350 351 351 349 347 347 350 352 352 354 354 351 353 356 356 356 357 354 352 354 355
327 327 326 327 328 329 331 331 334 336 337 339 342 345 347 350 352 353 355 354 352 351 351 352 351 353 354 354 356 356 357 356 356 356 356 356 356 355 353 352 351 350 350 351 351 350 347 346 348 351 351 352 352 351 350 354 356 357 358 357 353 353 355
327 326 326 326 327 328 328 328 331 334 335 337 339 341 344 347 349 352 353 354 354 352 351 351 352 352 353 354 355 356 356 356 355 356 357 357 357 357 356 354 353 353 352 352 352 351 349 348 346 348 350 350 351 351 350 351 353 355 356 357 356 353 352
327 326 326 326 326 326 326 327 330 331 333 334 335 337 340 342 345 349 351 353 354 354 352 350 351 352 353 354 355 355 356 356 356 357 357 358 358 358 358 356 354 354 353 353 354 352 352 351 349 348 348 350 351 351 351 349 349 352 353 353 354 354 352
326 326 326 326 327 326 325 326 328 329 331 332 333 334 337 338 341 345 349 352 353 354 354 351 350 351 353 353 354 355 356 357 357 357 358 358 359 360 359 357 356 355 355 355 355 354 354 353 352 350 348 349 350 351 351 349 347 349 348 344 344 347 352
326 326 326 327 327 326 325 325 326 327 329 331 332 332 333 335 338 341 344 348 352 353 354 354 352 350 351 353 354 355 356 358 359 358 358 359 360 360 360 359 357 356 356 356 356 356 355 354 354 353 351 349 349 350 350 350 348 348 347 342 337 336 342
325 325 326 326 326 326 326 326 326 326 328 330 331 331 331 333 335 337 339 343 349 353 354 355 355 355 354 352 352 355 356 357 359 359 358 359 360 360 360 360 358 357 356 356 356 356 356 356 355 354 353 352 351 350 350 350 350 350 348 345 340 335 336
324 324 325 325 326 327 328 328 327 326 327 328 329 329 330 331 333 336 338 342 347 351 354 356 356 357 358 355 352 353 355 357 359 359 359 359 360 360 360 359 359 358 356 355 355 356 357 357 355 355 355 354 353 352 352 351 351 350 349 348 345 342 339
323 322 322 323 325 326 327 327 327 327 327 327 327 328 329 331 333 335 338 341 345 348 351 355 356 356 358 358 356 354 354 356 356 357 359 359 359 360 360 359 358 358 356 354 354 355 356 356 356 356 355 355 355 354 353 352 351 350 350 349 348 346 344
321 321 321 322 323 324 325 326 326 327 327 326 326 328 329 330 332 334 336 339 343 345 346 349 352 353 355 357 358 357 357 356 356 357 358 358 359 359 360 359 358 358 357 355 354 354 354 355 356 355 355 355 355 355 354 354 353 351 350 349 348 347 346
321 321 322 322 322 323 322 323 325 326 326 326 326 327 328 329 331 333 335 337 340 342 343 343 345 346 348 350 353 355 356 356 357 358 358 358 358 358 359 359 358 358 358 357 355 354 353 354 355 355 355 355 355 355 355 355 354 352 351 350 349 348 346
321 321 321 321 321 322 321 322 323 324 324 325 325 326 327 329 331 332 334 336 337 339 340 340 340 340 343 345 348 351 353 354 355 356 356 357 357 357 358 359 358 359 358 357 356 356 355 354 354 355 355 354 354 355 354 355 355 353 352 351 350 348 347
320 320 319 319 320 320 321 322 322 322 322 324 325 325 326 328 330 331 333 334 335 337 338 338 338 338 339 341 344 347 351 353 355 355 355 355 356 356 357 357 358 358 358 358 357 357 357 356 355 355 354 353 353 354 354 355 355 354 352 351 350 349 347
318 319 319 318 318 319 320 321 321 321 321 322 323 323 325 327 328 330 332 333 334 336 336 335 336 337 338 339 342 345 348 351 353 354 355 356 356 356 356 357 357 358 358 358 357 357 357 357 356 355 354 351 351 353 354 355 355 354 353 352 351 350 348
317 317 317 317 318 318 318 319 320 320 320 321 321 322 323 325 328 329 330 331 333 334 334 334 335 336 337 338 341 344 347 350 352 353 354 354 355 356 356 357 357 357 357 357 357 357 358 357 356 356 355 354 353 352 352 354 356 355 355 353 352 351 349
316 316 317 317 317 317 317 318 319 319 320 319 319 320 321 323 327 329 329 330 331 331 332 333 335 336 336 337 340 343 346 347 349 351 352 352 353 355 356 357 357 357 357 357 356 356 356 357 356 356 356 355 354 353 352 354 355 356 356 355 354 353 351
316 316 316 316 316 316 317 317 317 318 318 319 319 320 321 322 325 328 329 329 330 330 330 332 333 334 335 337 339 341 343 344 344 347 349 351 352 354 354 355 356 357 357 357 356 356 356 356 356 356 356 356 356 355 355 355 356 357 358 357 355 354 353
315 315 315 315 315 316 316 317 317 317 317 318 319 321 321 322 323 326 327 329 329 329 330 331 332 333 335 336 338 339 340 341 341 342 344 346 350 353 354 355 356 357 357 357 357 356 356 357 357 356 356 357 357 357 358 358 358 360 360 359 358 356 355
314 314 314 314 315 315 316 316 317 317 317 317 319 320 321 322 322 323 326 328 328 329 329 330 331 332 333 335 337 337 338 340 340 341 342 342 346 350 352 353 355 356 356 356 357 357 357 357 358 357 357 357 358 359 359 360 361 363 363 362 360 360 359
314 314 314 314 314 315 316 316 316 317 317 318 318 320 321 321 321 321 323 326 327 327 328 329 330 331 332 334 335 336 337 339 340 341 342 343 345 347 349 351 353 354 355 355 356 357 357 357 358 358 358 357 358 358 359 361 362 363 363 361 360 359 360
314 314 314 314 314 315 316 316 317 317 318 318 319 319 320 321 321 320 320 323 325 326 327 328 329 330 331 332 334 335 336 338 339 340 341 343 345 346 347 349 351 352 354 354 355 356 356 357 357 358 358 359 359 359 360 361 362 361 359 358 357 356 356
314 314 314 314 315 315 316 316 317 317 318 319 319 319 319 320 320 320 320 321 323 326 327 328 328 329 330 331 332 333 335 336 338 339 340 343 344 345 346 348 350 352 354 354 355 355 356 356 357 358 358 359 360 360 362 362 361 359 357 357 356 354 353
313 313 314 314 314 314 315 315 316 317 317 318 319 319 319 319 320 321 321 322 324 326 327 328 328 328 329 330 331 333 334 335 337 338 339 341 342 343 344 344 346 349 352 353 354 355 355 356 358 358 358 358 359 360 362 363 361 360 358 358 357 354 353
312 313 313 313 313 314 314 314 315 315 316 316 317 318 318 318 319 320 321 322 325 325 325 326 328 328 328 329 330 331 333 333 334 336 338 339 340 341 342 343 343 344 346 348 349 349 350 352 353 355 356 357 358 359 360 361 361 360 359 358 357 356 354
311 311 312 312 312 312 313 313 313 314 315 315 316 317 318 319 319 320 321 322 324 325 324 325 325 327 328 328 328 329 330 330 332 334 336 337 339 340 341 342 343 343 343 344 345 345 346 346 347 348 350 352 353 355 356 357 358 358 357 356 356 356 354
310 310 310 311 311 312 312 313 313 313 314 314 315 316 317 318 319 320 321 322 324 325 324 324 324 325 326 327 328 328 329 329 331 332 333 335 336 337 338 340 341 342 342 343 343 343 344 344 345 346 346 347 348 350 351 353 354 356 357 357 357 357 357

ECMWFFLT1_925_thetae_087.txt.gz
Theta_e
357 358 357 357 356 355 355 356 356 356 355 355 354 353 353 354 354 354 357 360 362 363 363 362 362 362 361 360 358 357 356 354 354 355 355 354 351 350 351 352 353 355 356 355 355 357 357 358 358 358 359 359 359 363 364 363 363 363 362 362 362 362 359
354 357 357 357 356 355 355 356 356 356 355 356 355 353 352 354 355 355 359 362 363 364 364 363 363 362 362 360 359 358 357 356 355 355 356 354 353 352 351 351 351 353 355 354 353 356 356 357 358 358 360 359 357 360 362 362 362 362 361 361 363 363 362
351 354 355 356 356 355 356 356 355 354 355 355 356 354 354 354 354 356 360 362 364 365 364 364 364 362 362 361 360 360 359 357 356 356 355 353 353 352 350 351 351 351 352 353 353 355 356 357 357 357 358 358 356 358 359 360 361 361 360 363 363 361 362
351 352 354 355 356 356 357 358 357 356 354 354 354 354 355 355 356 358 360 361 362 365 365 364 364 362 362 362 360 360 360 358 356 356 354 351 351 351 350 351 352 350 350 351 352 352 354 355 357 357 358 357 356 357 357 357 358 358 360 363 362 359 361
349 350 352 353 355 356 356 358 359 359 357 356 356 355 353 354 356 358 359 360 361 363 364 364 363 362 361 362 360 359 360 359 356 355 354 351 350 351 350 349 350 349 349 349 350 351 352 354 355 357 357 357 356 355 356 357 357 357 358 360 360 358 358
347 349 350 351 353 354 355 357 358 357 356 355 355 356 355 353 355 356 358 360 359 360 362 362 361 361 361 361 358 358 360 360 358 356 354 352 350 350 350 350 349 349 348 348 348 349 352 353 354 355 356 356 354 353 354 355 355 355 356 358 359 358 356
345 347 348 349 350 350 353 357 357 355 355 354 353 354 355 355 356 357 356 358 358 358 361 361 360 360 362 361 358 358 360 360 360 358 355 353 352 351 350 350 350 348 347 347 347 348 350 353 355 354 354 354 353 352 351 353 353 353 354 356 358 358 357
344 345 345 346 347 346 349 355 357 356 356 355 354 355 356 357 357 357 356 356 355 357 359 359 358 358 361 361 359 358 359 358 359 358 356 353 351 351 351 351 351 349 347 346 347 348 348 351 353 353 353 354 353 352 351 352 354 354 352 354 356 358 357
341 342 343 344 343 343 348 351 353 355 356 356 355 355 355 357 358 356 356 356 355 356 356 355 356 357 359 361 360 359 358 357 358 358 356 352 350 350 349 349 350 350 349 347 346 348 348 349 350 350 353 354 353 353 352 352 354 355 353 353 354 356 357
339 340 341 341 341 342 346 347 348 351 353 356 357 355 354 356 358 356 354 354 353 353 353 354 355 357 359 360 360 359 359 357 356 357 355 352 351 349 347 346 347 349 351 348 344 345 347 348 348 348 351 354 354 353 354 354 355 356 354 353 354 356 357
337 338 338 339 339 340 342 344 345 347 349 352 355 356 356 355 356 355 352 351 352 352 352 354 355 356 358 359 360 359 359 358 356 355 355 353 351 349 347 344 344 346 348 348 345 343 344 347 348 348 350 354 354 354 354 355 356 356 355 353 354 355 356
336 337 337 337 337 337 338 340 343 345 346 347 349 352 354 354 354 354 352 351 352 353 353 354 355 355 355 357 359 359 359 358 356 355 354 354 351 349 348 345 343 343 346 348 346 343 343 345 347 348 349 352 354 354 354 355 356 356 356 354 352 353 354
334 334 334 335 334 334 336 338 340 343 343 344 345 347 349 352 353 354 354 353 353 353 354 354 354 355 355 356 358 358 358 358 357 355 353 353 352 349 348 347 344 343 343 345 346 345 343 343 345 347 348 351 353 353 353 354 355 355 356 356 353 352 353
334 332 331 332 332 332 333 334 337 340 340 341 342 343 345 347 350 351 353 353 352 352 353 352 352 354 355 356 357 358 359 357 356 356 354 353 354 351 348 347 346 345 344 344 345 345 343 341 342 346 348 349 351 352 351 352 355 355 356 357 356 353 352
333 331 331 331 330 331 331 331 334 337 337 338 338 340 341 343 345 348 350 352 353 352 353 352 352 353 354 355 356 357 359 358 357 356 356 355 355 353 351 349 348 347 346 345 345 346 344 342 341 343 345 347 349 351 349 348 350 354 355 357 357 355 351
331 331 331 330 330 331 330 330 333 334 335 336 336 336 338 340 342 344 347 349 351 353 354 353 352 354 354 354 355 356 358 359 358 358 357 358 357 357 355 352 350 349 348 348 347 346 346 344 342 342 343 345 348 350 349 346 345 348 352 354 356 356 352
331 330 330 331 331 331 330 330 332 333 334 335 335 335 337 338 340 342 345 346 348 351 353 353 354 354 353 354 355 356 358 360 360 359 359 359 359 359 360 358 354 352 351 351 349 349 349 348 347 344 342 344 346 348 347 345 343 343 347 350 352 354 353
330 330 330 330 332 332 330 330 331 332 332 332 334 335 335 336 338 340 342 344 347 350 351 353 354 353 352 353 354 355 357 359 360 360 360 360 360 361 362 361 358 355 354 354 353 352 352 352 351 349 346 345 344 345 345 344 343 342 344 346 348 348 348
328 328 329 330 330 330 330 331 331 332 332 331 332 334 334 335 337 338 339 341 344 348 350 352 354 354 355 355 353 354 356 358 360 360 358 359 361 363 363 363 362 359 356 355 355 355 355 355 355 354 352 350 347 346 345 345 344 344 344 344 345 344 343
326 326 327 328 328 328 329 330 331 331 332 331 331 332 333 334 336 338 338 340 343 346 347 349 351 352 354 355 354 354 354 355 358 361 360 359 361 363 363 363 364 361 357 356 356 357 357 357 357 356 356 355 353 351 349 347 346 345 345 345 346 345 345
325 325 325 326 327 327 328 328 329 330 330 330 330 331 332 333 335 337 338 339 341 343 345 346 346 346 349 352 354 354 354 354 355 358 361 360 358 357 358 361 363 362 358 356 357 358 358 359 358 358 358 358 357 356 354 351 349 348 348 347 347 347 347
324 323 324 324 325 326 326 325 326 327 328 329 329 329 330 332 334 335 337 338 339 340 342 343 343 343 344 346 350 351 352 354 355 355 357 357 355 353 353 357 360 361 359 357 356 357 358 359 359 358 358 359 359 358 357 355 352 351 351 350 350 350 349
322 323 324 323 323 325 324 324 325 325 325 327 327 327 329 331 332 334 336 337 338 338 340 340 341 341 341 342 344 346 348 352 354 355 356 356 356 354 353 354 355 357 358 358 358 357 356 358 358 358 358 359 359 359 359 357 355 354 353 352 351 351 350
322 322 322 321 322 323 322 323 324 324 323 325 325 325 326 329 332 334 335 336 337 338 338 339 339 339 340 340 340 342 344 347 351 354 356 356 355 354 354 353 354 356 357 356 358 359 357 357 357 358 358 358 358 359 359 358 358 356 355 353 352 352 351
321 321 320 320 321 321 320 322 323 323 323 323 323 323 324 325 329 332 334 334 336 337 337 337 337 338 339 339 338 339 342 345 348 351 353 354 353 352 354 353 354 356 355 353 356 360 359 358 358 357 358 358 358 358 358 358 358 358 357 355 354 353 352
320 320 320 319 320 320 319 320 322 321 321 322 323 323 322 323 325 329 331 333 335 335 335 335 336 337 338 339 339 339 341 344 347 349 352 354 353 353 353 353 353 353 353 353 354 355 357 359 359 358 357 357 358 358 357 358 358 358 358 357 356 355 353
319 319 319 319 319 319 319 319 320 320 320 321 321 322 322 322 324 326 329 331 333 334 334 334 336 337 337 338 339 340 340 342 345 347 349 352 353 353 353 352 353 353 353 354 352 350 352 357 360 360 359 359 359 359 358 357 357 357 358 357 356 356 354
318 318 318 318 318 318 318 319 319 319 319 320 320 320 322 323 324 326 327 328 330 331 332 333 335 336 336 337 339 340 341 342 343 343 344 346 349 350 349 350 351 353 354 355 355 353 353 353 356 359 361 360 359 359 359 359 358 357 357 357 357 357 355
318 318 318 317 317 317 318 318 319 319 319 319 319 320 322 323 325 326 325 326 328 330 330 332 333 335 336 336 338 339 340 341 342 342 343 344 346 346 347 349 350 352 353 355 356 357 356 355 355 358 360 360 359 358 357 358 359 358 358 357 357 357 356
318 317 317 317 316 317 317 317 318 318 318 319 319 320 322 323 325 326 326 326 327 328 329 331 332 333 334 335 337 338 338 339 341 341 342 343 345 346 347 349 350 351 352 353 355 355 355 356 358 358 359 359 359 358 357 358 359 360 359 357 357 356 355
317 317 317 316 316 316 317 317 317 317 317 319 320 320 322 323 323 325 326 326 326 326 327 329 331 332 333 334 336 337 337 338 339 340 342 343 345 347 348 349 351 352 351 352 354 353 353 355 358 359 359 360 360 359 358 358 359 359 359 358 357 356 355
317 318 318 317 317 317 317 317 316 317 318 319 320 321 321 322 322 323 324 325 325 324 325 326 330 331 331 332 334 335 335 336 337 339 342 342 343 345 347 348 350 351 351 351 353 354 354 354 356 357 358 359 359 359 359 359 359 360 360 359 359 359 357
317 317 318 318 318 317 317 317 317 318 319 320 321 321 321 322 322 322 322 323 324 323 323 325 328 329 330 330 331 332 333 335 336 338 340 341 342 344 346 347 348 350 352 352 352 352 353 353 355 356 355 357 359 359 359 360 359 359 360 359 359 360 361
316 316 316 317 317 317 317 318 318 318 319 320 320 321 321 322 322 322 322 322 323 323 324 325 327 328 329 329 329 330 332 334 336 337 338 340 342 343 344 346 346 347 349 349 350 352 352 351 353 354 355 357 358 357 357 358 356 355 356 356 356 357 359
314 314 315 315 316 316 317 317 317 318 319 319 319 320 320 321 322 322 322 322 323 324 325 326 328 329 329 329 330 331 331 333 335 337 337 337 339 340 342 344 344 345 345 345 346 348 350 350 352 353 354 355 356 355 355 356 354 354 355 355 355 356 355
313 313 314 314 314 315 315 316 317 317 318 318 319 319 319 320 320 322 322 323 324 324 324 326 328 329 328 328 328 329 330 332 333 333 334 335 336 337 339 341 341 342 343 342 343 344 345 345 345 346 348 349 350 351 352 353 352 352 353 353 355 355 354
312 312 312 313 313 314 314 315 316 316 317 318 318 318 319 319 320 320 321 322 323 324 325 326 327 328 328 327 327 328 330 331 331 331 333 335 336 337 338 339 339 340 340 340 340 341 341 342 341 342 343 344 346 347 347 347 348 348 348 348 350 351 352
311 311 311 312 312 313 314 314 315 315 316 317 317 317 318 318 318 319 320 321 322 323 324 326 327 328 328 327 327 328 329 330 331 332 332 333 334 336 337 338 338 339 339 339 338 338 338 339 340 341 341 342 343 343 344 344 344 345 345 345 346 346 348

ECMWFFLT1_925_thetae_090.txt.gz
Theta_e
353 355 358 359 358 357 357 358 356 356 355 355 355 354 352 350 350 352 356 359 360 360 359 359 361 363 361 357 354 354 355 355 356 356 355 356 356 356 357 356 356 357 357 359 358 358 357 355 356 358 359 359 358 357 358 356 353 355 357 356 356 358 357
355 357 360 360 359 357 356 358 358 357 357 356 356 356 353 353 353 353 357 360 361 361 360 360 361 363 362 359 355 354 354 354 356 356 356 355 355 354 355 355 355 356 356 356 356 356 358 357 356 358 358 359 359 358 358 356 355 356 355 353 356 358 355
356 358 360 360 359 358 357 359 358 357 357 356 356 356 353 355 356 355 357 360 362 362 362 361 361 363 362 360 357 355 355 354 355 356 356 355 354 352 352 353 353 355 356 355 355 355 357 358 357 358 359 359 358 358 359 359 359 360 358 354 356 356 353
355 355 356 356 357 358 359 358 358 357 357 356 355 354 354 357 356 355 358 360 362 363 363 362 361 362 362 361 360 357 356 355 354 355 355 355 354 351 351 352 351 353 355 354 355 355 355 357 357 359 360 359 357 358 359 360 360 362 360 355 355 355 354
355 353 353 355 355 357 358 359 360 359 358 357 356 356 358 357 356 355 357 359 361 362 363 362 362 362 362 361 361 359 358 356 355 355 354 353 354 352 351 352 351 351 352 353 354 353 354 356 357 358 359 358 357 357 358 359 359 360 360 356 356 356 357
354 353 353 353 354 355 358 358 359 357 357 358 357 357 356 354 355 355 354 357 361 361 362 362 361 361 362 361 360 360 360 358 356 355 355 353 353 353 351 350 351 351 351 351 353 352 353 356 357 358 359 358 357 357 357 358 358 358 359 359 358 358 358
350 352 353 353 353 353 356 358 359 359 359 359 357 356 355 354 354 353 352 355 357 357 358 359 357 358 361 361 360 360 360 360 358 356 355 353 352 352 351 350 350 350 350 350 351 351 352 354 356 357 358 357 356 356 356 356 357 357 358 358 359 358 358
347 349 349 351 352 351 354 357 359 359 360 358 357 359 358 355 353 353 353 355 354 354 354 354 354 356 357 357 357 358 359 360 359 356 356 354 352 351 350 350 350 349 349 349 349 350 351 353 355 355 357 357 355 354 354 354 355 355 356 357 358 359 358
345 347 347 348 349 349 353 354 356 358 358 359 359 359 359 356 353 352 353 353 353 354 353 351 353 356 355 354 354 355 356 359 360 357 356 354 352 351 350 350 350 349 349 349 348 348 349 351 353 354 355 356 355 353 353 353 353 353 354 354 356 358 357
343 345 345 346 346 347 350 350 352 354 355 357 358 358 357 356 355 354 354 353 354 355 356 354 355 356 354 353 354 354 353 355 358 358 356 354 351 350 350 350 350 350 349 348 347 347 348 349 351 353 354 354 355 354 352 352 352 353 354 353 354 357 357
341 342 342 344 344 345 346 346 348 351 352 353 355 355 355 355 356 356 355 356 356 357 356 354 354 355 354 353 354 354 351 351 353 356 356 354 351 350 349 350 350 350 350 347 346 346 347 348 350 352 352 353 354 354 353 353 353 353 354 354 354 355 356
340 340 340 341 342 342 343 343 344 347 349 350 351 352 352 353 354 353 353 355 356 356 355 352 352 354 353 353 353 353 352 350 351 353 355 354 352 349 348 348 348 349 350 348 346 345 346 347 349 350 350 351 353 354 354 353 354 354 355 355 354 354 355
338 339 338 338 339 339 341 342 342 343 344 345 347 348 348 350 352 353 355 356 356 355 354 352 353 353 353 353 353 352 353 352 351 351 352 352 352 350 347 347 346 346 348 349 347 345 345 346 347 348 349 350 351 353 355 354 354 355 356 357 355 354 354
336 337 336 336 336 337 339 340 340 341 341 342 343 344 344 345 349 352 354 354 355 356 354 352 353 353 353 353 353 353 354 354 353 353 353 353 351 349 348 347 345 344 345 347 347 345 344 344 346 347 349 349 351 353 355 355 355 356 356 356 356 354 354
335 335 334 334 335 335 337 337 339 339 339 340 342 342 343 342 344 348 350 350 353 355 355 355 354 353 353 353 353 353 353 353 353 353 352 353 353 351 349 347 346 344 344 345 345 346 344 343 343 346 347 348 350 353 354 355 355 356 356 356 356 355 354
335 334 334 334 333 334 334 335 336 337 338 338 339 341 342 342 342 345 347 348 350 353 354 356 356 355 355 355 353 352 352 353 353 353 352 353 353 354 353 350 346 344 344 345 344 345 345 343 342 344 346 347 349 351 352 353 354 354 355 355 356 356 354
333 333 333 333 333 333 333 334 335 335 335 337 337 338 340 341 342 343 345 347 349 351 353 354 356 357 356 356 355 353 352 353 353 353 353 354 353 352 353 353 352 348 345 344 345 345 345 344 342 342 343 346 348 349 350 350 350 351 353 354 355 355 355
332 332 331 331 333 333 332 333 333 334 334 334 336 337 338 339 341 342 344 346 347 349 350 352 353 355 356 357 357 356 354 352 352 353 354 355 354 353 353 352 352 353 352 349 346 345 345 346 345 343 342 343 346 348 349 350 348 347 348 352 353 354 354
330 330 330 330 330 330 331 331 332 333 333 332 334 335 336 338 340 341 342 344 345 347 348 349 350 350 353 355 356 357 356 354 353 353 354 355 355 354 352 351 352 354 353 352 352 350 349 347 346 345 344 342 343 345 346 348 349 346 345 346 349 350 351
328 328 329 329 328 328 329 329 330 331 331 331 332 333 335 336 338 339 340 341 343 344 346 347 347 347 348 350 352 354 354 354 355 355 354 354 356 357 355 352 352 353 352 351 352 353 353 353 351 348 347 345 345 346 346 347 347 347 345 343 345 346 347
326 326 326 327 327 327 328 328 328 328 329 329 329 331 333 334 336 338 339 340 341 342 343 343 344 345 345 346 347 348 349 352 354 355 355 355 355 357 357 356 355 355 354 353 352 352 353 354 354 353 353 351 350 349 349 348 347 346 345 343 342 344 345
325 324 324 325 325 325 326 326 326 326 327 327 326 328 331 333 335 337 338 339 339 340 341 341 341 342 343 343 343 344 346 348 350 352 353 354 355 357 357 357 356 355 355 355 355 354 352 352 353 354 355 355 355 354 353 351 350 349 347 345 343 342 343
323 323 324 324 324 323 323 324 325 325 325 325 325 325 328 331 333 334 336 338 338 338 339 339 339 340 341 341 341 343 344 346 348 350 351 352 355 356 356 356 355 355 355 355 356 356 354 352 351 353 354 354 354 355 357 356 355 354 352 349 345 343 343
323 323 322 323 323 322 321 323 324 323 323 324 323 324 325 327 329 331 332 334 336 337 338 338 339 339 340 340 341 342 343 344 346 349 349 350 351 353 354 354 354 354 355 354 355 356 355 354 352 351 352 354 354 354 355 356 358 357 356 354 351 348 345
322 322 321 322 322 321 321 322 323 322 322 322 322 323 324 325 327 328 329 330 333 334 335 337 338 338 339 339 340 341 343 344 345 345 344 344 347 349 351 352 353 353 353 353 354 355 355 355 353 351 351 352 353 353 353 354 357 359 359 357 355 352 349
321 321 321 321 320 320 320 321 321 321 321 321 321 322 323 324 326 328 328 328 330 331 332 334 335 337 339 339 339 341 342 342 344 344 342 342 344 345 346 349 351 351 352 352 353 354 355 355 353 353 353 353 353 353 353 354 356 358 359 359 357 356 353
320 320 320 319 319 320 320 320 320 320 320 320 321 321 322 323 326 328 328 328 329 329 330 331 332 335 337 337 339 341 339 336 337 340 343 343 341 339 341 345 348 350 351 352 353 353 354 354 354 354 354 353 353 353 354 355 356 357 359 359 358 358 355
320 320 319 319 319 319 319 319 320 320 319 319 320 320 322 323 326 328 328 328 329 329 329 330 331 333 335 336 338 340 339 335 331 332 338 340 336 334 337 341 344 348 348 347 350 353 352 353 354 355 355 354 354 354 356 358 359 358 358 359 358 358 358
320 319 319 319 318 319 319 319 319 319 318 318 319 321 322 323 325 326 327 328 329 329 328 329 329 332 334 335 335 336 338 340 337 333 335 336 333 333 338 340 339 341 342 344 347 350 350 351 353 354 354 354 354 355 357 358 358 358 356 355 358 358 357
320 320 319 319 319 319 319 319 319 318 318 318 320 321 322 323 324 325 326 327 328 328 328 327 327 329 333 334 333 332 333 337 339 338 337 336 333 336 341 342 339 337 339 345 350 350 349 350 351 350 351 352 353 353 354 355 356 355 353 351 354 356 357
319 319 319 319 320 320 320 319 319 318 318 319 320 321 322 322 323 324 325 325 325 325 326 326 326 328 331 332 332 332 332 332 333 335 338 339 340 340 341 342 344 342 338 338 343 347 350 351 350 349 350 350 351 352 353 353 354 354 354 353 354 355 356
318 319 319 319 319 319 319 318 318 319 320 320 321 321 321 321 322 323 324 324 324 324 324 325 327 327 328 329 330 331 330 329 328 330 334 337 339 340 339 340 345 347 342 337 340 347 352 352 350 349 349 349 350 350 351 352 352 352 352 353 354 354 355
317 317 317 318 317 318 318 318 319 319 320 320 321 321 321 321 322 322 323 323 324 324 324 325 326 326 327 328 330 330 329 328 329 330 332 335 338 340 340 341 344 345 343 343 346 350 352 352 352 351 350 350 350 349 350 350 350 351 351 352 352 353 354
316 316 316 316 316 317 317 317 318 318 319 320 320 321 321 321 321 321 322 323 324 324 325 326 326 327 327 328 330 331 330 330 331 332 333 336 338 338 339 340 343 343 342 343 345 347 346 346 347 348 349 350 350 350 351 351 351 351 351 352 353 353 354
315 315 315 315 315 315 316 316 317 318 318 319 319 319 320 321 321 321 322 322 323 324 325 326 326 327 327 327 329 330 330 329 330 331 333 335 334 334 335 337 339 341 341 342 344 344 343 342 342 341 343 344 345 347 348 350 351 350 351 352 352 352 353
314 314 314 314 314 314 315 315 316 316 317 317 318 319 319 320 320 321 321 321 322 323 323 324 326 327 327 328 329 329 329 329 329 330 331 332 331 331 334 335 335 336 338 338 339 339 339 338 337 336 336 336 338 340 343 345 347 348 348 349 348 348 348
313 313 313 313 313 314 314 315 315 316 316 317 317 318 318 319 319 319 320 320 320 321 321 322 323 324 326 327 328 328 329 329 329 329 330 331 331 332 333 334 335 335 336 337 338 338 338 337 336 335 334 334 334 335 337 339 341 342 342 343 343 344 345
312 312 312 312 313 313 314 314 315 316 316 316 317 317 317 318 318 318 318 318 319 319 319 320 321 322 323 324 326 327 328 328 329 329 329 330 332 333 333 334 335 336 336 336 337 337 338 337 336 336 336 336 335 334 334 335 337 337 338 339 341 344 346

ECMWFFLT1_925_thetae_093.txt.gz
Theta_e
360 360 362 360 358 359 358 356 355 353 352 351 351 350 347 347 351 355 356 354 356 356 356 358 356 354 356 358 357 356 355 355 354 353 353 354 354 355 355 356 358 357 357 358 356 357 357 355 358 358 358 358 356 355 356 356 356 355 355 355 356 355 355
359 360 361 359 358 359 357 355 353 353 352 351 351 352 349 347 350 355 356 355 356 357 357 358 357 356 356 357 358 357 355 355 354 354 354 354 354 355 355 356 357 356 357 357 356 358 357 355 356 357 357 358 357 355 356 355 355 355 354 356 356 355 355
358 359 361 360 360 359 357 356 355 353 352 351 351 352 352 351 351 354 356 356 357 357 357 358 358 357 357 357 357 356 355 355 355 354 354 355 355 356 356 356 356 356 356 356 356 358 358 356 357 357 356 357 358 356 355 355 354 352 352 354 355 355 355
360 361 363 363 361 358 356 355 355 356 354 353 353 352 353 354 353 355 357 356 357 358 358 358 359 359 358 358 356 355 354 354 355 355 355 355 355 356 356 356 356 356 356 356 356 357 357 357 358 358 357 357 358 358 355 354 352 350 351 350 350 353 353
357 358 360 362 363 363 361 356 355 356 355 355 355 353 354 355 354 357 359 358 358 359 358 359 360 361 361 360 358 355 354 354 354 355 355 355 355 355 355 354 354 354 355 356 355 355 356 357 357 358 358 357 358 358 357 356 354 353 356 353 349 350 350
355 356 359 360 360 362 361 358 357 357 355 355 354 353 355 356 355 357 361 360 360 360 359 359 360 361 361 362 360 356 354 353 353 355 355 355 355 354 353 352 353 352 353 354 354 354 355 356 357 357 359 358 358 358 357 357 358 357 357 356 353 351 349
353 356 357 356 356 357 357 357 357 357 355 354 354 355 356 357 355 355 358 360 360 359 358 358 359 359 360 361 360 359 356 354 353 354 354 354 354 354 353 351 351 351 352 353 353 354 354 355 356 356 358 359 359 358 357 357 359 358 357 357 356 354 352
350 352 352 351 351 352 355 357 358 359 356 353 354 356 355 354 354 354 355 355 355 355 356 356 357 356 358 359 359 359 358 357 355 354 354 354 353 354 353 351 351 351 351 352 352 353 353 354 356 356 356 357 357 358 357 357 358 358 358 357 357 357 356
347 348 347 347 346 348 352 356 358 359 357 354 355 355 354 353 352 352 353 352 353 353 353 353 355 355 355 357 357 357 358 358 357 356 355 354 354 354 353 351 351 351 350 351 351 351 352 352 354 356 356 357 356 357 357 357 357 357 357 358 357 357 357
345 346 345 344 343 344 348 351 353 355 355 354 354 354 354 353 352 352 352 352 352 352 353 353 354 355 354 354 355 355 356 357 358 358 357 356 354 354 353 352 351 350 349 350 350 351 351 351 352 354 355 356 356 356 355 355 356 356 356 357 357 356 356
342 343 343 342 341 341 343 345 347 350 351 353 353 354 353 353 353 353 352 352 351 352 354 354 353 354 354 353 353 353 354 354 355 357 357 356 355 354 353 352 351 350 350 350 350 350 350 350 350 351 354 356 356 356 355 354 354 355 355 355 356 356 355
339 340 341 341 341 341 341 342 344 345 347 349 350 352 353 353 353 353 352 353 353 353 356 355 354 354 353 354 354 353 353 352 350 352 355 356 355 352 350 350 349 350 349 349 350 349 348 349 350 350 352 353 355 356 355 354 353 353 354 353 353 355 356
338 337 338 339 339 339 340 341 342 344 345 346 346 347 351 353 353 354 354 354 354 354 355 355 354 353 351 351 352 352 352 351 348 348 353 355 354 352 349 347 347 349 349 349 349 349 348 348 348 350 350 351 353 354 355 354 353 352 353 353 352 353 355
337 336 336 337 337 337 339 340 340 341 342 344 344 344 346 350 351 352 354 355 355 354 354 353 352 352 351 351 351 350 350 350 349 348 351 352 352 352 350 348 346 347 348 349 349 349 348 347 347 348 349 350 352 352 352 354 354 353 353 353 353 353 354
335 335 335 335 335 335 337 338 339 339 340 342 344 343 344 346 348 349 351 353 354 354 354 354 353 352 353 352 351 351 351 350 350 351 352 352 351 352 351 349 347 346 346 348 349 349 348 347 347 347 347 348 350 351 350 351 353 353 353 353 352 353 355
335 334 334 334 334 334 334 336 336 337 339 339 341 342 344 345 346 347 349 350 351 352 353 354 353 354 354 354 352 352 352 351 352 353 353 353 352 352 350 348 348 346 345 346 348 350 349 346 346 346 347 347 348 350 350 350 352 353 353 353 353 353 354
334 334 333 333 334 333 333 334 334 334 336 337 337 340 342 344 345 346 347 348 349 350 351 351 352 353 356 356 354 353 352 352 352 353 352 353 353 352 352 351 349 348 345 344 345 348 350 348 346 345 346 347 347 348 349 349 350 351 353 353 353 353 354
332 332 332 332 334 334 333 333 333 333 335 336 336 337 339 341 343 343 345 347 347 348 348 348 348 349 352 354 354 354 353 352 352 353 353 353 353 353 353 352 351 350 348 345 343 345 348 350 349 345 344 346 347 347 348 349 349 349 351 353 353 354 354
330 330 332 332 332 333 333 332 332 332 334 335 335 335 337 339 340 342 343 344 344 345 345 345 345 345 346 349 351 354 355 354 354 354 354 354 354 355 354 353 351 350 350 348 345 344 346 349 351 349 346 345 346 347 347 348 348 348 349 351 352 353 354
328 329 331 332 333 332 330 330 330 329 330 333 334 334 336 338 338 340 342 341 341 342 342 343 343 342 343 344 347 350 352 353 354 354 355 354 354 354 354 354 354 353 352 351 350 347 346 347 350 351 350 348 347 347 347 347 348 348 347 348 349 350 351
328 328 328 330 333 331 328 327 328 326 326 329 332 333 334 336 337 339 340 339 338 339 340 341 341 341 341 342 344 346 348 350 352 353 354 354 354 354 354 355 356 356 354 353 352 351 349 348 348 349 350 352 350 349 349 348 348 348 348 348 348 348 348
326 325 324 326 328 326 325 325 326 325 324 326 330 331 331 332 333 336 338 339 338 337 338 339 340 340 340 341 342 343 346 348 350 350 352 353 353 355 355 356 356 356 356 356 354 354 353 352 351 350 350 351 352 352 351 350 349 350 350 349 348 347 347
324 323 323 323 323 323 323 323 324 324 322 323 327 329 328 328 328 330 334 336 337 336 336 337 339 339 339 340 342 343 344 346 346 346 347 349 351 352 353 354 354 354 355 355 355 355 355 354 354 354 353 352 351 352 353 351 351 352 353 353 352 350 348
321 322 321 321 321 322 322 321 322 322 321 321 324 327 327 327 327 327 329 331 334 334 333 334 337 338 338 339 341 341 340 342 344 345 344 345 346 348 350 350 352 352 353 353 354 354 354 355 355 355 355 354 352 352 352 353 353 353 354 355 355 354 351
321 320 319 319 320 321 321 320 320 320 320 320 322 324 326 327 327 326 327 328 330 331 330 331 334 336 336 337 340 340 336 335 340 343 344 342 339 342 346 347 348 350 350 351 353 353 352 353 354 355 355 355 355 354 352 352 352 352 353 354 353 354 352
320 319 319 319 320 320 320 320 319 319 319 319 321 322 325 327 327 327 327 328 329 329 329 328 330 333 334 335 339 340 338 335 334 337 340 339 334 335 340 343 344 347 348 348 349 351 352 353 353 354 355 355 355 355 354 352 352 352 353 353 353 353 353
319 319 319 319 319 319 319 319 319 318 317 319 321 322 323 325 325 326 327 328 328 329 328 327 328 330 332 334 336 336 336 336 336 335 334 334 332 331 334 337 338 340 342 343 345 348 350 352 353 354 354 354 354 355 354 354 354 355 355 355 356 355 354
319 319 319 320 320 319 319 319 318 318 318 319 321 322 322 323 323 324 326 327 328 328 327 326 326 327 329 333 334 331 328 332 337 338 336 335 334 332 332 334 337 337 336 338 344 349 349 350 351 352 353 354 354 355 355 355 356 357 356 355 356 356 356
320 319 319 320 320 320 319 319 318 318 319 320 320 321 321 322 323 324 325 325 325 324 324 325 326 327 329 332 332 329 327 330 333 334 334 336 337 336 335 336 339 340 338 337 342 346 346 346 348 350 351 352 353 353 354 354 355 355 355 355 355 355 356
319 319 319 319 319 319 318 318 318 319 319 320 321 321 321 321 322 323 324 324 323 323 324 325 325 326 326 327 327 326 327 330 330 328 328 330 334 339 339 338 339 342 343 341 338 337 338 341 346 349 351 351 352 352 352 352 353 354 355 355 354 354 353
319 318 318 318 317 318 318 318 318 319 319 320 320 320 321 321 321 322 322 323 322 323 324 324 323 324 324 323 324 326 328 330 328 326 326 327 332 338 339 338 338 339 343 345 339 334 336 342 347 350 351 350 350 350 350 350 351 352 353 353 352 352 352
317 317 317 316 316 317 317 317 318 318 319 319 319 320 321 321 321 321 321 322 322 323 323 323 323 325 326 325 326 327 328 329 328 328 328 328 331 333 335 337 339 338 341 346 343 338 342 347 348 350 351 351 350 350 350 350 350 350 351 351 351 351 352
316 316 316 316 316 316 315 316 316 317 317 318 318 319 319 320 320 320 321 321 322 322 323 323 324 325 326 326 327 327 327 328 329 330 330 329 331 334 334 337 340 341 343 346 346 344 346 346 345 345 346 346 347 347 348 349 350 350 350 350 351 352 352
316 316 315 315 315 315 314 315 316 316 316 317 317 317 318 319 319 320 320 321 321 321 321 322 323 324 324 325 326 327 327 328 329 330 330 329 330 332 332 332 336 339 341 342 343 344 345 343 341 341 340 340 340 340 340 341 342 344 346 347 349 351 352
315 315 314 314 314 313 313 314 314 315 316 316 317 317 318 318 318 318 319 319 319 320 320 320 321 321 322 323 324 325 326 328 328 329 329 328 328 329 329 330 332 332 332 332 333 336 338 338 338 338 337 337 336 335 335 334 333 336 340 342 344 347 348
314 313 313 313 313 312 312 313 314 315 316 316 316 316 316 317 317 317 317 317 318 318 318 319 319 319 319 320 321 322 324 324 325 326 327 328 328 328 328 329 330 330 330 330 330 331 334 336 337 337 337 336 335 334 334 333 331 333 336 338 339 340 341
313 312 312 312 312 312 312 313 314 315 315 315 315 315 316 316 316 316 316 316 317 317 317 317 318 319 320 319 320 320 321 321 322 324 325 327 328 329 329 329 330 330 331 332 333 333 334 335 336 337 337 336 335 334 334 333 333 334 335 336 335 335 336
312 312 312 311 312 312 313 314 314 314 314 315 315 315 316 316 316 317 317 317 316 317 317 316 317 318 319 319 319 319 319 319 320 321 322 324 327 329 329 329 329 329 329 330 332 334 333 333 334 336 337 337 336 336 335 335 335 334 333 334 335 335 336

ECMWFFLT1_925_thetae_096.txt.gz
Theta_e
360 358 359 358 356 356 355 352 352 352 349 345 346 345 346 349 351 351 351 351 351 352 353 353 353 352 354 355 353 354 357 356 355 355 354 353 354 354 353 353 354 354 355 356 355 357 358 356 357 358 357 356 356 358 357 356 355 355 356 356 355 356 355
359 358 359 357 357 357 354 352 353 352 350 347 347 346 346 350 352 351 352 351 350 351 352 354 353 352 354 355 353 354 357 357 355 355 354 354 354 354 354 354 354 354 355 356 355 355 357 356 356 357 358 357 357 359 357 356 356 356 355 355 355 355 355
359 358 359 357 357 358 355 354 353 352 351 348 348 348 348 350 352 352 352 352 352 351 351 353 353 353 354 355 354 354 356 356 355 354 353 353 353 354 354 354 355 355 355 355 355 355 356 356 356 356 358 358 357 357 357 355 355 355 355 355 354 355 355
360 359 360 359 359 359 355 353 353 353 352 349 348 350 351 351 352 353 352 352 353 353 352 353 353 354 354 355 355 354 354 355 355 353 353 353 352 353 354 354 355 356 356 356 356 356 356 356 357 356 356 357 357 356 356 356 355 355 355 354 354 355 355
359 360 361 360 360 359 355 353 354 353 352 351 350 350 352 353 353 354 353 353 353 354 352 352 353 354 353 353 355 354 353 354 355 354 353 353 353 353 353 354 354 355 356 356 355 356 356 357 358 357 355 356 356 356 356 356 355 355 355 353 353 354 353
356 358 360 360 360 359 356 353 353 352 351 351 351 350 351 352 354 355 354 354 354 355 354 354 354 354 354 354 354 355 354 354 355 354 353 353 354 354 354 354 354 355 356 356 355 355 355 357 358 357 357 357 356 355 356 356 356 355 354 353 352 351 350
353 353 354 356 358 358 355 353 352 351 351 351 350 350 350 351 354 355 355 354 354 354 356 356 356 356 356 355 355 355 355 355 354 354 354 353 354 354 355 355 355 354 355 355 355 355 355 356 356 356 357 357 357 356 356 356 356 355 354 354 354 353 351
348 348 348 350 352 354 354 353 352 351 351 352 352 351 351 352 353 355 356 355 354 354 355 357 358 358 357 357 356 355 355 355 355 354 354 354 354 354 354 354 355 354 354 354 354 355 355 355 355 355 356 357 357 357 356 356 357 356 355 355 356 355 354
344 344 344 345 346 350 352 351 351 351 351 352 353 353 352 353 353 353 355 355 355 356 356 357 358 359 358 358 358 357 356 355 354 353 353 354 354 354 354 354 354 353 353 353 352 353 354 354 354 354 355 356 357 357 357 357 357 357 356 356 356 356 355
343 342 342 342 343 345 348 348 349 351 351 352 353 353 353 352 351 352 354 355 356 356 356 356 358 359 360 360 360 358 357 356 355 353 353 354 354 355 354 354 354 352 351 351 351 351 352 353 353 354 355 356 356 357 357 357 358 357 356 356 356 356 356
341 341 341 341 342 343 346 347 347 349 350 350 350 351 351 351 351 351 352 354 354 355 355 355 355 357 358 358 358 356 355 355 356 355 353 353 354 354 353 353 354 353 351 351 351 351 351 352 352 353 354 355 355 356 356 356 356 356 357 357 356 355 355
339 340 340 340 341 341 343 345 346 346 347 348 349 350 349 350 351 351 351 351 351 352 353 353 354 354 355 356 356 356 355 355 355 356 356 354 354 354 354 353 353 354 352 351 351 351 350 350 351 352 353 354 354 355 355 355 355 355 356 356 356 355 355
338 338 339 338 339 339 341 343 344 346 346 347 349 351 350 351 351 351 351 350 350 351 351 352 352 352 353 354 355 355 354 352 353 355 356 356 355 355 354 353 352 353 353 352 350 351 350 349 351 351 351 352 352 353 353 355 355 354 354 355 355 355 354
337 336 338 338 338 338 339 341 342 344 345 345 347 348 349 350 350 351 351 350 351 352 352 351 352 352 352 353 354 354 352 352 353 354 354 355 356 355 355 354 351 350 351 351 350 350 350 349 350 350 351 350 350 350 350 353 355 355 354 354 353 354 354
336 335 336 337 336 336 337 338 339 341 341 343 345 345 345 346 347 349 351 350 351 353 353 352 352 353 353 353 353 353 353 353 353 353 352 353 354 354 354 353 351 349 348 349 350 350 350 349 349 349 349 349 350 350 349 351 353 354 354 354 353 353 353
335 334 334 334 334 335 335 335 336 337 338 340 343 344 344 345 346 347 348 348 349 352 354 353 352 352 352 351 352 352 352 352 351 352 351 351 352 352 352 352 352 350 349 347 347 348 349 349 349 348 348 348 348 349 349 350 351 352 353 353 353 353 353
332 333 333 333 334 334 333 334 335 335 336 338 340 342 343 343 345 346 346 347 347 348 351 352 353 353 352 352 351 350 351 351 351 351 351 350 351 351 350 351 351 351 350 348 346 347 347 348 349 348 347 347 347 348 349 349 349 350 350 350 351 351 352
330 330 331 331 333 333 333 333 334 334 335 336 338 340 342 343 343 343 344 345 345 345 347 348 349 350 351 352 353 352 352 352 351 351 351 351 352 352 351 351 351 351 351 349 347 346 346 346 348 349 348 347 347 347 348 348 347 347 348 349 349 349 350
329 329 330 330 332 333 331 331 333 334 334 334 336 338 340 340 341 341 342 343 343 342 343 343 343 344 346 348 350 352 353 353 352 352 352 352 352 352 352 352 352 351 351 350 349 349 348 346 346 348 349 348 347 346 347 348 348 347 346 347 347 348 349
329 330 330 330 330 329 328 327 330 333 333 332 333 337 340 339 337 337 339 341 341 341 340 341 341 341 343 344 345 348 351 353 354 354 354 354 353 353 353 353 353 353 352 351 350 350 349 347 345 347 349 349 349 347 346 346 347 347 347 347 346 346 348
329 329 328 328 328 325 324 324 328 331 331 330 330 333 336 338 337 335 335 337 339 339 339 340 341 341 342 343 344 346 348 350 352 353 353 354 354 354 354 355 355 354 354 353 352 352 351 350 348 347 347 349 350 350 349 347 347 347 348 348 348 348 349
326 326 325 325 323 322 323 323 325 328 330 328 327 329 332 335 337 336 334 333 336 338 338 338 339 340 342 342 342 344 346 347 347 348 349 351 352 354 354 355 355 355 355 355 354 354 353 353 352 350 349 349 350 351 351 351 350 349 349 349 349 349 350
322 322 321 321 320 320 321 320 322 326 328 327 326 326 326 329 332 333 332 331 331 334 335 335 336 338 340 341 339 338 341 343 344 345 344 344 346 348 349 351 353 354 354 354 355 355 355 354 354 354 353 352 351 351 352 352 352 352 351 351 351 350 350
319 319 319 319 319 318 318 318 320 323 326 327 326 325 325 326 328 330 330 329 328 329 331 331 332 334 337 339 338 337 337 339 340 341 341 340 338 339 342 345 348 350 352 352 353 354 354 354 354 354 354 354 353 354 354 353 353 352 351 352 352 352 352
318 319 319 319 318 318 317 318 319 321 323 324 324 324 324 325 326 327 329 328 328 327 327 327 328 330 333 336 338 338 336 335 336 337 339 338 334 333 337 340 343 346 348 349 351 352 352 353 353 353 354 354 354 354 355 355 354 353 352 352 351 352 353
319 320 321 320 318 318 318 318 319 320 321 321 322 322 323 324 325 326 327 326 326 325 325 325 326 327 329 332 335 333 330 331 333 334 336 337 335 334 335 336 338 340 341 342 345 349 350 351 352 353 353 353 354 354 355 355 355 354 354 353 352 351 351
320 321 320 320 319 318 318 318 319 320 320 320 321 321 322 323 324 324 324 324 324 324 325 325 325 326 327 331 332 330 326 327 330 331 332 334 335 335 335 334 336 338 338 338 340 345 348 350 350 351 352 352 353 354 354 354 355 355 355 354 353 352 352
319 319 319 319 318 317 317 318 318 319 320 320 320 321 321 322 322 323 323 322 323 324 324 324 324 324 325 326 326 326 325 326 329 329 328 328 329 331 334 335 337 339 340 340 339 341 344 346 346 347 349 350 352 353 354 355 355 355 355 355 354 354 354
318 318 318 318 318 317 317 317 318 318 319 319 319 320 320 321 321 321 321 322 322 323 323 323 322 322 323 324 323 324 325 327 329 328 326 326 327 329 332 335 337 339 340 341 342 341 338 338 342 345 348 349 351 351 351 352 353 354 355 354 355 355 354
317 317 317 317 317 316 316 317 317 317 317 318 319 319 320 320 320 320 320 321 321 322 322 322 321 321 323 324 324 324 325 326 327 326 326 327 329 329 330 332 334 336 337 338 341 342 337 336 343 349 350 350 351 350 349 350 351 351 352 352 352 352 352
316 316 316 316 316 316 316 316 316 316 317 317 318 318 318 319 319 319 320 320 321 321 321 321 321 322 323 323 324 325 325 326 327 328 328 329 329 329 330 332 334 337 338 339 341 343 342 342 345 348 348 348 347 346 346 347 348 349 350 350 350 350 350
316 316 316 316 316 316 315 315 315 316 316 316 316 317 317 318 318 319 319 319 320 320 320 320 320 321 321 320 321 322 323 324 326 328 328 328 328 328 328 330 333 334 336 338 339 342 344 346 346 344 343 342 340 338 338 337 338 339 341 343 346 348 349
316 315 315 315 315 315 315 315 315 315 315 315 316 317 317 317 318 318 318 318 318 318 318 319 319 319 319 318 318 318 319 321 323 325 325 325 327 327 328 328 329 328 329 332 333 334 339 343 344 342 340 340 338 336 335 334 330 328 329 333 338 341 344
315 315 315 314 314 313 314 313 313 313 314 315 316 316 316 316 316 316 316 317 317 317 317 317 317 317 317 318 318 318 318 319 320 320 320 321 323 325 326 327 328 328 329 330 331 332 333 336 337 337 337 338 337 337 337 336 332 329 328 331 335 338 342
314 314 313 313 312 312 312 312 313 314 315 315 315 315 315 315 315 315 315 315 316 316 316 316 316 316 316 317 318 318 318 318 317 317 318 319 320 321 323 325 327 328 329 329 330 330 331 332 334 334 334 335 337 337 337 336 334 333 333 333 335 338 341
312 312 312 312 312 311 311 313 314 314 314 314 314 314 314 314 315 315 315 315 316 316 316 316 316 316 316 316 317 318 318 318 317 317 318 319 318 319 321 323 325 326 326 327 328 327 328 330 332 332 332 333 335 336 337 337 336 335 335 335 335 336 337
311 311 311 311 311 312 313 314 314 313 313 314 314 314 315 316 317 317 317 317 317 317 316 316 316 316 317 317 316 317 317 317 317 317 318 318 318 318 320 322 323 324 325 326 326 324 323 325 328 331 332 332 333 334 335 335 335 334 334 335 336 336 336
311 311 311 312 312 313 313 313 313 313 314 314 315 316 316 317 317 317 317 317 318 318 317 317 317 317 317 316 316 316 316 316 317 317 317 316 316 317 318 320 322 323 323 324 326 325 323 325 328 331 332 332 331 330 330 330 331 332 333 335 336 336 336